Time,TemperatureF,DewpointF,PressureIn,WindDirection,WindDirectionDegrees,WindSpeedMPH,WindSpeedGustMPH,Humidity,HourlyPrecipIn,Conditions,Clouds,dailyrainin,SolarRadiationWatts/m^2,SoftwareType,DateUTC
2013-02-11 00:01:00,45.2,40.3,29.60,SW,219,11.0,20.9,83,0.00,,,0.00,0.00,VWS V14.01,2013-02-11 06:01:00,
2013-02-11 00:03:00,45.1,40.2,29.60,SW,226,17.6,17.6,83,0.00,,,0.00,0.00,VWS V14.01,2013-02-11 06:03:00,
2013-02-11 00:04:00,45.1,39.9,29.60,SW,216,12.1,16.5,82,0.00,,,0.00,0.00,VWS V14.01,2013-02-11 06:04:00,
2013-02-11 00:06:00,45.0,39.8,29.60,WSW,243,14.3,16.5,82,0.00,,,0.00,0.00,VWS V14.01,2013-02-11 06:06:00,
2013-02-11 00:07:00,44.9,39.8,29.60,SW,233,11.0,16.5,82,0.00,,,0.00,0.00,VWS V14.01,2013-02-11 06:07:00,
2013-02-11 00:08:00,44.9,39.4,29.60,WSW,241,14.3,20.9,81,0.00,,,0.00,0.00,VWS V14.01,2013-02-11 06:08:00,
2013-02-11 00:10:00,44.8,39.3,29.60,SW,226,14.3,19.8,81,0.00,,,0.00,0.00,VWS V14.01,2013-02-11 06:10:00,
2013-02-11 00:11:00,44.7,38.9,29.60,WSW,239,17.6,22.0,80,0.00,,,0.00,0.00,VWS V14.01,2013-02-11 06:11:00,
2013-02-11 00:12:00,44.7,38.9,29.60,WSW,239,17.6,17.6,80,0.00,,,0.00,0.00,VWS V14.01,2013-02-11 06:12:00,
2013-02-11 00:14:00,44.6,38.5,29.60,West,262,9.9,12.1,79,0.00,,,0.00,0.00,VWS V14.01,2013-02-11 06:14:00,
2013-02-11 00:15:00,44.6,38.5,29.60,SSW,212,9.9,9.9,79,0.00,,,0.00,0.00,VWS V14.01,2013-02-11 06:15:00,
2013-02-11 00:16:00,44.5,38.4,29.60,SW,233,15.4,15.4,79,0.00,,,0.00,0.00,VWS V14.01,2013-02-11 06:16:00,
2013-02-11 00:18:00,44.5,38.4,29.60,SW,226,15.4,16.5,79,0.00,,,0.00,0.00,VWS V14.01,2013-02-11 06:18:00,
2013-02-11 00:19:00,44.4,38.3,29.60,South,188,11.0,17.6,79,0.00,,,0.00,0.00,VWS V14.01,2013-02-11 06:19:00,
2013-02-11 00:20:00,44.4,38.3,29.60,SW,234,8.8,11.0,79,0.00,,,0.00,0.00,VWS V14.01,2013-02-11 06:20:00,
2013-02-11 00:22:00,44.3,37.9,29.60,SW,236,17.6,20.9,78,0.00,,,0.00,0.00,VWS V14.01,2013-02-11 06:22:00,
2013-02-11 00:23:00,44.2,37.8,29.60,WSW,256,12.1,18.7,78,0.00,,,0.00,0.00,VWS V14.01,2013-02-11 06:23:00,
2013-02-11 00:24:00,44.2,37.8,29.60,SW,224,12.1,12.1,78,0.00,,,0.00,0.00,VWS V14.01,2013-02-11 06:24:00,
2013-02-11 00:26:00,44.1,37.7,29.60,SW,224,19.8,19.8,78,0.00,,,0.00,0.00,VWS V14.01,2013-02-11 06:26:00,
2013-02-11 00:27:00,44.1,37.7,29.60,SW,217,14.3,22.0,78,0.00,,,0.00,0.00,VWS V14.01,2013-02-11 06:27:00,
2013-02-11 00:29:00,44.0,37.6,29.60,WSW,255,17.6,23.1,78,0.00,,,0.00,0.00,VWS V14.01,2013-02-11 06:29:00,
2013-02-11 00:32:00,43.9,37.8,29.60,WSW,240,12.1,16.5,79,0.00,,,0.00,0.00,VWS V14.01,2013-02-11 06:32:00,
2013-02-11 00:34:00,43.8,37.7,29.60,West,259,17.6,17.6,79,0.00,,,0.00,0.00,VWS V14.01,2013-02-11 06:34:00,
2013-02-11 00:37:00,43.6,37.5,29.61,WSW,247,13.2,17.6,79,0.00,,,0.00,0.00,VWS V14.01,2013-02-11 06:37:00,
2013-02-11 00:38:00,43.6,37.5,29.61,SW,226,11.0,17.6,79,0.00,,,0.00,0.00,VWS V14.01,2013-02-11 06:38:00,
2013-02-11 00:39:00,43.6,37.5,29.61,WSW,258,6.6,22.0,79,0.00,,,0.00,0.00,VWS V14.01,2013-02-11 06:39:00,
2013-02-11 00:41:00,43.5,37.4,29.61,WSW,246,12.1,15.4,79,0.00,,,0.00,0.00,VWS V14.01,2013-02-11 06:41:00,
2013-02-11 00:42:00,43.5,37.4,29.61,WSW,248,14.3,19.8,79,0.00,,,0.00,0.00,VWS V14.01,2013-02-11 06:42:00,
2013-02-11 00:43:00,43.5,37.4,29.61,WSW,258,13.2,15.4,79,0.00,,,0.00,0.00,VWS V14.01,2013-02-11 06:43:00,
2013-02-11 00:45:00,43.4,37.3,29.61,SW,218,13.2,13.2,79,0.00,,,0.00,0.00,VWS V14.01,2013-02-11 06:45:00,
2013-02-11 00:47:00,43.4,37.3,29.61,SW,222,12.1,13.2,79,0.00,,,0.00,0.00,VWS V14.01,2013-02-11 06:47:00,
2013-02-11 00:48:00,43.4,37.3,29.61,WSW,251,14.3,15.4,79,0.00,,,0.00,0.00,VWS V14.01,2013-02-11 06:48:00,
2013-02-11 00:51:00,43.3,37.2,29.61,SW,234,14.3,18.7,79,0.00,,,0.00,0.00,VWS V14.01,2013-02-11 06:51:00,
2013-02-11 00:52:00,43.3,37.2,29.61,WSW,243,9.9,9.9,79,0.00,,,0.00,0.00,VWS V14.01,2013-02-11 06:52:00,
2013-02-11 00:54:00,43.3,37.6,29.61,WSW,251,15.4,15.4,80,0.00,,,0.00,0.00,VWS V14.01,2013-02-11 06:54:00,
2013-02-11 00:56:00,43.2,37.5,29.62,SW,218,7.7,14.3,80,0.00,,,0.00,0.00,VWS V14.01,2013-02-11 06:56:00,
2013-02-11 00:58:00,43.1,37.4,29.62,SW,228,13.2,16.5,80,0.00,,,0.00,0.00,VWS V14.01,2013-02-11 06:58:00,
2013-02-11 00:59:00,43.1,37.4,29.62,WSW,237,7.7,19.8,80,0.00,,,0.00,0.00,VWS V14.01,2013-02-11 06:59:00,
2013-02-11 01:02:00,42.9,37.2,29.62,SW,236,9.9,13.2,80,0.00,,,0.00,0.00,VWS V14.01,2013-02-11 07:02:00,
2013-02-11 01:03:00,42.9,37.2,29.62,SW,224,13.2,13.2,80,0.00,,,0.00,0.00,VWS V14.01,2013-02-11 07:03:00,
2013-02-11 01:04:00,42.9,37.2,29.62,West,264,13.2,15.4,80,0.00,,,0.00,0.00,VWS V14.01,2013-02-11 07:04:00,
2013-02-11 01:06:00,42.8,37.1,29.62,WSW,240,18.7,24.2,80,0.00,,,0.00,0.00,VWS V14.01,2013-02-11 07:06:00,
2013-02-11 01:07:00,42.8,37.1,29.62,WSW,237,11.0,19.8,80,0.00,,,0.00,0.00,VWS V14.01,2013-02-11 07:07:00,
2013-02-11 01:09:00,42.7,37.0,29.62,SW,226,22.0,22.0,80,0.00,,,0.00,0.00,VWS V14.01,2013-02-11 07:09:00,
2013-02-11 01:10:00,42.7,37.0,29.62,West,259,18.7,22.0,80,0.00,,,0.00,0.00,VWS V14.01,2013-02-11 07:10:00,
2013-02-11 01:11:00,42.7,36.7,29.62,SW,231,18.7,18.7,79,0.00,,,0.00,0.00,VWS V14.01,2013-02-11 07:11:00,
2013-02-11 01:12:00,42.7,36.7,29.62,SW,218,19.8,24.2,79,0.00,,,0.00,0.00,VWS V14.01,2013-02-11 07:12:00,
2013-02-11 01:14:00,42.8,36.4,29.62,WSW,255,11.0,15.4,78,0.00,,,0.00,0.00,VWS V14.01,2013-02-11 07:14:00,
2013-02-11 01:15:00,42.8,36.4,29.62,WSW,255,13.2,15.4,78,0.00,,,0.00,0.00,VWS V14.01,2013-02-11 07:15:00,
2013-02-11 01:16:00,42.7,36.3,29.62,WSW,251,17.6,22.0,78,0.00,,,0.00,0.00,VWS V14.01,2013-02-11 07:16:00,
2013-02-11 01:18:00,42.7,36.3,29.62,WSW,249,16.5,20.9,78,0.00,,,0.00,0.00,VWS V14.01,2013-02-11 07:18:00,
2013-02-11 01:20:00,42.7,36.0,29.62,WSW,242,16.5,19.8,77,0.00,,,0.00,0.00,VWS V14.01,2013-02-11 07:20:00,
2013-02-11 01:21:00,42.7,36.3,29.62,West,266,14.3,19.8,78,0.00,,,0.00,0.00,VWS V14.01,2013-02-11 07:21:00,
2013-02-11 01:22:00,42.7,36.3,29.62,SW,215,17.6,20.9,78,0.00,,,0.00,0.00,VWS V14.01,2013-02-11 07:22:00,
2013-02-11 01:24:00,42.5,36.1,29.62,SW,233,14.3,20.9,78,0.00,,,0.00,0.00,VWS V14.01,2013-02-11 07:24:00,
2013-02-11 01:25:00,42.5,36.1,29.62,WSW,242,24.2,24.2,78,0.00,,,0.00,0.00,VWS V14.01,2013-02-11 07:25:00,
2013-02-11 01:26:00,42.5,36.1,29.62,WSW,241,8.8,24.2,78,0.00,,,0.00,0.00,VWS V14.01,2013-02-11 07:26:00,
2013-02-11 01:27:00,42.4,36.0,29.62,WSW,251,12.1,12.1,78,0.00,,,0.00,0.00,VWS V14.01,2013-02-11 07:27:00,
2013-02-11 01:29:00,42.4,36.0,29.63,SW,220,8.8,16.5,78,0.00,,,0.00,0.00,VWS V14.01,2013-02-11 07:29:00,
2013-02-11 01:30:00,42.3,35.9,29.63,WSW,251,13.2,13.2,78,0.00,,,0.00,0.00,VWS V14.01,2013-02-11 07:30:00,
2013-02-11 01:31:00,42.3,35.9,29.62,WSW,249,13.2,19.8,78,0.00,,,0.00,0.00,VWS V14.01,2013-02-11 07:31:00,
2013-02-11 01:33:00,42.2,35.8,29.63,West,264,13.2,16.5,78,0.00,,,0.00,0.00,VWS V14.01,2013-02-11 07:33:00,
2013-02-11 01:34:00,42.2,35.5,29.63,WSW,238,14.3,14.3,77,0.00,,,0.00,0.00,VWS V14.01,2013-02-11 07:34:00,
2013-02-11 01:36:00,42.1,35.8,29.63,WNW,289,13.2,13.2,78,0.00,,,0.00,0.00,VWS V14.01,2013-02-11 07:36:00,
2013-02-11 01:37:00,42.1,35.8,29.63,WSW,242,11.0,13.2,78,0.00,,,0.00,0.00,VWS V14.01,2013-02-11 07:37:00,
2013-02-11 01:38:00,42.1,35.8,29.63,WSW,246,18.7,18.7,78,0.00,,,0.00,0.00,VWS V14.01,2013-02-11 07:38:00,
2013-02-11 01:40:00,42.0,35.7,29.63,SW,220,13.2,17.6,78,0.00,,,0.00,0.00,VWS V14.01,2013-02-11 07:40:00,
2013-02-11 01:42:00,42.0,35.7,29.63,SSW,210,9.9,15.4,78,0.00,,,0.00,0.00,VWS V14.01,2013-02-11 07:42:00,
2013-02-11 01:44:00,41.9,35.5,29.63,SW,235,12.1,15.4,78,0.00,,,0.00,0.00,VWS V14.01,2013-02-11 07:44:00,
2013-02-11 01:45:00,41.8,35.5,29.63,SW,228,13.2,18.7,78,0.00,,,0.00,0.00,VWS V14.01,2013-02-11 07:45:00,
2013-02-11 01:47:00,41.8,35.5,29.63,WSW,249,8.8,15.4,78,0.00,,,0.00,0.00,VWS V14.01,2013-02-11 07:47:00,
2013-02-11 01:48:00,41.8,35.5,29.63,WSW,245,12.1,16.5,78,0.00,,,0.00,0.00,VWS V14.01,2013-02-11 07:48:00,
2013-02-11 01:49:00,41.7,35.7,29.63,WSW,247,12.1,14.3,79,0.00,,,0.00,0.00,VWS V14.01,2013-02-11 07:49:00,
2013-02-11 01:50:00,41.6,35.6,29.63,SW,236,13.2,18.7,79,0.00,,,0.00,0.00,VWS V14.01,2013-02-11 07:50:00,
2013-02-11 01:53:00,41.5,35.5,29.63,WSW,258,13.2,17.6,79,0.00,,,0.00,0.00,VWS V14.01,2013-02-11 07:53:00,
2013-02-11 01:54:00,41.5,35.5,29.63,WSW,256,15.4,15.4,79,0.00,,,0.00,0.00,VWS V14.01,2013-02-11 07:54:00,
2013-02-11 01:56:00,41.4,35.4,29.63,WSW,237,12.1,14.3,79,0.00,,,0.00,0.00,VWS V14.01,2013-02-11 07:56:00,
2013-02-11 01:58:00,41.3,35.3,29.63,West,272,13.2,17.6,79,0.00,,,0.00,0.00,VWS V14.01,2013-02-11 07:58:00,
2013-02-11 02:00:00,41.3,35.3,29.63,WSW,251,5.5,9.9,79,0.00,,,0.00,0.00,VWS V14.01,2013-02-11 08:00:00,
2013-02-11 02:02:00,41.2,35.2,29.63,SW,228,9.9,15.4,79,0.00,,,0.00,0.00,VWS V14.01,2013-02-11 08:02:00,
2013-02-11 02:03:00,41.2,35.2,29.64,SW,224,12.1,12.1,79,0.00,,,0.00,0.00,VWS V14.01,2013-02-11 08:03:00,
2013-02-11 02:05:00,41.1,35.1,29.64,WSW,251,9.9,18.7,79,0.00,,,0.00,0.00,VWS V14.01,2013-02-11 08:05:00,
2013-02-11 02:07:00,41.0,35.0,29.64,WSW,252,9.9,18.7,79,0.00,,,0.00,0.00,VWS V14.01,2013-02-11 08:07:00,
2013-02-11 02:08:00,41.0,35.0,29.64,WSW,252,16.5,17.6,79,0.00,,,0.00,0.00,VWS V14.01,2013-02-11 08:08:00,
2013-02-11 02:09:00,41.0,35.0,29.64,SSW,207,18.7,18.7,79,0.00,,,0.00,0.00,VWS V14.01,2013-02-11 08:09:00,
2013-02-11 02:11:00,40.9,34.9,29.64,SW,214,9.9,18.7,79,0.00,,,0.00,0.00,VWS V14.01,2013-02-11 08:11:00,
2013-02-11 02:12:00,40.9,34.9,29.64,SW,226,23.1,23.1,79,0.00,,,0.00,0.00,VWS V14.01,2013-02-11 08:12:00,
2013-02-11 02:13:00,40.9,34.9,29.64,WSW,243,14.3,14.3,79,0.00,,,0.00,0.00,VWS V14.01,2013-02-11 08:13:00,
2013-02-11 02:15:00,40.8,34.8,29.64,West,265,13.2,13.2,79,0.00,,,0.00,0.00,VWS V14.01,2013-02-11 08:15:00,
2013-02-11 02:16:00,40.8,34.8,29.64,West,267,14.3,22.0,79,0.00,,,0.00,0.00,VWS V14.01,2013-02-11 08:16:00,
2013-02-11 02:17:00,40.8,34.8,29.64,West,274,17.6,22.0,79,0.00,,,0.00,0.00,VWS V14.01,2013-02-11 08:17:00,
2013-02-11 02:18:00,40.7,34.7,29.63,SW,225,17.6,17.6,79,0.00,,,0.00,0.00,VWS V14.01,2013-02-11 08:18:00,
2013-02-11 02:20:00,40.7,34.7,29.64,WSW,255,17.6,22.0,79,0.00,,,0.00,0.00,VWS V14.01,2013-02-11 08:20:00,
2013-02-11 02:22:00,40.6,34.6,29.64,WSW,253,15.4,20.9,79,0.00,,,0.00,0.00,VWS V14.01,2013-02-11 08:22:00,
2013-02-11 02:23:00,40.6,34.6,29.64,WSW,245,13.2,20.9,79,0.00,,,0.00,0.00,VWS V14.01,2013-02-11 08:23:00,
2013-02-11 02:26:00,40.6,34.3,29.64,West,264,20.9,23.1,78,0.00,,,0.00,0.00,VWS V14.01,2013-02-11 08:26:00,
2013-02-11 02:27:00,40.5,34.2,29.64,West,261,24.2,24.2,78,0.00,,,0.00,0.00,VWS V14.01,2013-02-11 08:27:00,
2013-02-11 02:28:00,40.5,34.2,29.64,WSW,249,15.4,24.2,78,0.00,,,0.00,0.00,VWS V14.01,2013-02-11 08:28:00,
2013-02-11 02:29:00,40.5,34.2,29.64,WSW,258,15.4,16.5,78,0.00,,,0.00,0.00,VWS V14.01,2013-02-11 08:29:00,
2013-02-11 02:31:00,40.4,34.1,29.64,West,261,13.2,17.6,78,0.00,,,0.00,0.00,VWS V14.01,2013-02-11 08:31:00,
2013-02-11 02:32:00,40.4,34.4,29.65,SW,228,17.6,23.1,79,0.00,,,0.00,0.00,VWS V14.01,2013-02-11 08:32:00,
2013-02-11 02:33:00,40.4,34.4,29.65,WSW,253,16.5,23.1,79,0.00,,,0.00,0.00,VWS V14.01,2013-02-11 08:33:00,
2013-02-11 02:34:00,40.3,34.3,29.64,WSW,239,13.2,14.3,79,0.00,,,0.00,0.00,VWS V14.01,2013-02-11 08:34:00,
2013-02-11 02:37:00,40.2,34.2,29.65,WSW,250,22.0,24.2,79,0.00,,,0.00,0.00,VWS V14.01,2013-02-11 08:37:00,
2013-02-11 02:39:00,40.2,33.9,29.65,West,259,19.8,26.4,78,0.00,,,0.00,0.00,VWS V14.01,2013-02-11 08:39:00,
2013-02-11 02:42:00,40.1,33.8,29.65,West,259,8.8,13.2,78,0.00,,,0.00,0.00,VWS V14.01,2013-02-11 08:42:00,
2013-02-11 02:43:00,40.1,34.1,29.65,WSW,251,9.9,17.6,79,0.00,,,0.00,0.00,VWS V14.01,2013-02-11 08:43:00,
2013-02-11 02:44:00,40.1,34.1,29.65,West,264,13.2,17.6,79,0.00,,,0.00,0.00,VWS V14.01,2013-02-11 08:44:00,
2013-02-11 02:48:00,39.9,33.9,29.65,West,261,16.5,18.7,79,0.00,,,0.00,0.00,VWS V14.01,2013-02-11 08:48:00,
2013-02-11 02:49:00,39.9,33.9,29.64,WSW,255,9.9,18.7,79,0.00,,,0.00,0.00,VWS V14.01,2013-02-11 08:49:00,
2013-02-11 02:53:00,39.8,33.5,29.64,WSW,253,18.7,19.8,78,0.00,,,0.00,0.00,VWS V14.01,2013-02-11 08:53:00,
2013-02-11 02:54:00,39.8,33.5,29.64,WSW,239,13.2,24.2,78,0.00,,,0.00,0.00,VWS V14.01,2013-02-11 08:54:00,
2013-02-11 02:55:00,39.8,33.2,29.64,West,268,14.3,23.1,77,0.00,,,0.00,0.00,VWS V14.01,2013-02-11 08:55:00,
2013-02-11 02:58:00,39.7,33.1,29.64,WSW,247,26.4,33.0,77,0.00,,,0.00,0.00,VWS V14.01,2013-02-11 08:58:00,
2013-02-11 02:59:00,39.7,33.1,29.64,West,262,16.5,33.0,77,0.00,,,0.00,0.00,VWS V14.01,2013-02-11 08:59:00,
2013-02-11 03:00:00,39.7,33.1,29.65,WSW,256,15.4,25.3,77,0.00,,,0.00,0.00,VWS V14.01,2013-02-11 09:00:00,
2013-02-11 03:01:00,39.6,33.0,29.65,West,262,26.4,27.5,77,0.00,,,0.00,0.00,VWS V14.01,2013-02-11 09:01:00,
2013-02-11 03:04:00,39.5,32.9,29.65,WSW,257,14.3,29.7,77,0.00,,,0.00,0.00,VWS V14.01,2013-02-11 09:04:00,
2013-02-11 03:06:00,39.4,32.8,29.65,WSW,241,33.0,33.0,77,0.00,,,0.00,0.00,VWS V14.01,2013-02-11 09:06:00,
2013-02-11 03:07:00,39.4,32.8,29.65,West,262,17.6,27.5,77,0.00,,,0.00,0.00,VWS V14.01,2013-02-11 09:07:00,
2013-02-11 03:09:00,39.3,32.7,29.65,WSW,250,30.8,30.8,77,0.00,,,0.00,0.00,VWS V14.01,2013-02-11 09:09:00,
2013-02-11 03:11:00,39.1,32.2,29.65,WSW,256,15.4,26.4,76,0.00,,,0.00,0.00,VWS V14.01,2013-02-11 09:11:00,
2013-02-11 03:12:00,39.1,32.2,29.65,WNW,286,17.6,26.4,76,0.00,,,0.00,0.00,VWS V14.01,2013-02-11 09:12:00,
2013-02-11 03:14:00,39.0,32.1,29.65,West,266,13.2,24.2,76,0.00,,,0.00,0.00,VWS V14.01,2013-02-11 09:14:00,
2013-02-11 03:16:00,38.8,32.2,29.65,WNW,284,22.0,26.4,77,0.00,,,0.00,0.00,VWS V14.01,2013-02-11 09:16:00,
2013-02-11 03:17:00,38.8,32.2,29.65,West,261,13.2,26.4,77,0.00,,,0.00,0.00,VWS V14.01,2013-02-11 09:17:00,
2013-02-11 03:19:00,38.7,32.1,29.65,WSW,258,23.1,31.9,77,0.00,,,0.00,0.00,VWS V14.01,2013-02-11 09:19:00,
2013-02-11 03:22:00,38.7,32.1,29.65,West,271,13.2,22.0,77,0.00,,,0.00,0.00,VWS V14.01,2013-02-11 09:22:00,
2013-02-11 03:25:00,38.5,32.2,29.66,WNW,299,17.6,18.7,78,0.00,,,0.00,0.00,VWS V14.01,2013-02-11 09:25:00,
2013-02-11 03:27:00,38.4,31.8,29.66,WSW,251,25.3,25.3,77,0.00,,,0.00,0.00,VWS V14.01,2013-02-11 09:27:00,
2013-02-11 03:28:00,38.4,31.8,29.66,SW,224,26.4,26.4,77,0.00,,,0.00,0.00,VWS V14.01,2013-02-11 09:28:00,
2013-02-11 03:30:00,38.3,31.7,29.66,SW,236,18.7,18.7,77,0.00,,,0.00,0.00,VWS V14.01,2013-02-11 09:30:00,
2013-02-11 03:32:00,38.3,32.0,29.65,WSW,243,19.8,28.6,78,0.00,,,0.00,0.00,VWS V14.01,2013-02-11 09:32:00,
2013-02-11 03:33:00,38.2,32.0,29.66,West,270,19.8,23.1,78,0.00,,,0.00,0.00,VWS V14.01,2013-02-11 09:33:00,
2013-02-11 03:37:00,38.2,32.0,29.66,SW,232,25.3,37.4,78,0.00,,,0.00,0.00,VWS V14.01,2013-02-11 09:37:00,
2013-02-11 03:38:00,38.1,31.9,29.66,NW,305,15.4,30.8,78,0.00,,,0.00,0.00,VWS V14.01,2013-02-11 09:38:00,
2013-02-11 03:39:00,38.1,31.9,29.66,WSW,251,24.2,24.2,78,0.00,,,0.00,0.00,VWS V14.01,2013-02-11 09:39:00,
2013-02-11 03:42:00,37.9,31.7,29.67,WSW,258,18.7,27.5,78,0.00,,,0.00,0.00,VWS V14.01,2013-02-11 09:42:00,
2013-02-11 03:43:00,37.9,31.7,29.66,WNW,295,17.6,27.5,78,0.00,,,0.00,0.00,VWS V14.01,2013-02-11 09:43:00,
2013-02-11 03:44:00,37.9,31.7,29.66,West,275,15.4,17.6,78,0.00,,,0.00,0.00,VWS V14.01,2013-02-11 09:44:00,
2013-02-11 03:45:00,37.8,31.6,29.66,WSW,243,22.0,34.1,78,0.00,,,0.00,0.00,VWS V14.01,2013-02-11 09:45:00,
2013-02-11 03:47:00,37.6,30.7,29.66,WSW,249,20.9,24.2,76,0.00,,,0.00,0.00,VWS V14.01,2013-02-11 09:47:00,
2013-02-11 03:48:00,37.5,30.3,29.67,WNW,291,24.2,31.9,75,0.00,,,0.00,0.00,VWS V14.01,2013-02-11 09:48:00,
2013-02-11 03:50:00,37.4,30.2,29.66,WSW,243,25.3,26.4,75,0.00,,,0.00,0.00,VWS V14.01,2013-02-11 09:50:00,
2013-02-11 03:52:00,37.2,30.0,29.66,WSW,251,20.9,20.9,75,0.00,,,0.00,0.00,VWS V14.01,2013-02-11 09:52:00,
2013-02-11 03:55:00,37.1,29.9,29.67,WNW,285,13.2,19.8,75,0.00,,,0.00,0.00,VWS V14.01,2013-02-11 09:55:00,
2013-02-11 03:56:00,37.1,30.2,29.67,WNW,293,22.0,23.1,76,0.00,,,0.00,0.00,VWS V14.01,2013-02-11 09:56:00,
2013-02-11 03:57:00,36.9,30.0,29.67,WNW,282,23.1,23.1,76,0.00,,,0.00,0.00,VWS V14.01,2013-02-11 09:57:00,
2013-02-11 04:00:00,36.8,30.0,29.67,West,260,12.1,29.7,76,0.00,,,0.00,0.00,VWS V14.01,2013-02-11 10:00:00,
2013-02-11 04:01:00,36.8,29.6,29.67,West,260,18.7,26.4,75,0.00,,,0.00,0.00,VWS V14.01,2013-02-11 10:01:00,
2013-02-11 04:05:00,36.6,29.1,29.67,NW,305,20.9,38.5,74,0.00,,,0.00,0.00,VWS V14.01,2013-02-11 10:05:00,
2013-02-11 04:06:00,36.6,29.1,29.68,West,261,22.0,23.1,74,0.00,,,0.00,0.00,VWS V14.01,2013-02-11 10:06:00,
2013-02-11 04:10:00,36.4,28.9,29.67,SW,230,23.1,31.9,74,0.00,,,0.00,0.00,VWS V14.01,2013-02-11 10:10:00,
2013-02-11 04:11:00,36.4,28.9,29.67,WNW,285,35.2,35.2,74,0.00,,,0.00,0.00,VWS V14.01,2013-02-11 10:11:00,
2013-02-11 04:16:00,36.2,28.7,29.68,West,262,16.5,27.5,74,0.00,,,0.00,0.00,VWS V14.01,2013-02-11 10:16:00,
2013-02-11 04:17:00,36.2,28.7,29.68,WNW,296,15.4,16.5,74,0.00,,,0.00,0.00,VWS V14.01,2013-02-11 10:17:00,
2013-02-11 04:21:00,36.1,28.6,29.68,WSW,258,19.8,22.0,74,0.00,,,0.00,0.00,VWS V14.01,2013-02-11 10:21:00,
2013-02-11 04:22:00,36.1,29.0,29.68,WSW,256,36.3,36.3,75,0.00,,,0.00,0.00,VWS V14.01,2013-02-11 10:22:00,
2013-02-11 04:23:00,36.0,28.9,29.68,WSW,247,27.5,27.5,75,0.00,,,0.00,0.00,VWS V14.01,2013-02-11 10:23:00,
2013-02-11 04:27:00,35.9,28.8,29.68,WNW,291,28.6,28.6,75,0.00,,,0.00,0.00,VWS V14.01,2013-02-11 10:27:00,
2013-02-11 04:28:00,35.8,28.7,29.68,West,270,20.9,25.3,75,0.00,,,0.00,0.00,VWS V14.01,2013-02-11 10:28:00,
2013-02-11 04:32:00,35.7,28.9,29.68,WSW,252,17.6,26.4,76,0.00,,,0.00,0.00,VWS V14.01,2013-02-11 10:32:00,
2013-02-11 04:34:00,35.6,28.8,29.68,West,266,20.9,28.6,76,0.00,,,0.00,0.00,VWS V14.01,2013-02-11 10:34:00,
2013-02-11 04:37:00,35.5,28.7,29.69,West,260,15.4,19.8,76,0.00,,,0.00,0.00,VWS V14.01,2013-02-11 10:37:00,
2013-02-11 04:38:00,35.5,28.7,29.69,NW,311,18.7,18.7,76,0.00,,,0.00,0.00,VWS V14.01,2013-02-11 10:38:00,
2013-02-11 04:39:00,35.5,28.7,29.68,WSW,237,22.0,22.0,76,0.00,,,0.00,0.00,VWS V14.01,2013-02-11 10:39:00,
2013-02-11 04:43:00,35.5,28.4,29.68,WSW,251,23.1,23.1,75,0.00,,,0.00,0.00,VWS V14.01,2013-02-11 10:43:00,
2013-02-11 04:44:00,35.5,28.4,29.69,SW,222,27.5,27.5,75,0.00,,,0.00,0.00,VWS V14.01,2013-02-11 10:44:00,
2013-02-11 04:45:00,35.5,28.4,29.68,SW,234,35.2,35.2,75,0.00,,,0.00,0.00,VWS V14.01,2013-02-11 10:45:00,
2013-02-11 04:48:00,35.5,28.4,29.69,West,260,18.7,29.7,75,0.00,,,0.00,0.00,VWS V14.01,2013-02-11 10:48:00,
2013-02-11 04:49:00,35.5,28.4,29.69,West,260,26.4,39.6,75,0.00,,,0.00,0.00,VWS V14.01,2013-02-11 10:49:00,
2013-02-11 04:50:00,35.6,28.5,29.69,West,260,20.9,39.6,75,0.00,,,0.00,0.00,VWS V14.01,2013-02-11 10:50:00,
2013-02-11 04:51:00,35.5,28.4,29.69,West,272,24.2,35.2,75,0.00,,,0.00,0.00,VWS V14.01,2013-02-11 10:51:00,
2013-02-11 04:53:00,35.6,28.1,29.70,WNW,300,22.0,26.4,74,0.00,,,0.00,0.00,VWS V14.01,2013-02-11 10:53:00,
2013-02-11 04:55:00,35.6,28.1,29.69,West,270,30.8,36.3,74,0.00,,,0.00,0.00,VWS V14.01,2013-02-11 10:55:00,
2013-02-11 04:57:00,35.6,28.1,29.69,West,268,22.0,35.2,74,0.00,,,0.00,0.00,VWS V14.01,2013-02-11 10:57:00,
2013-02-11 04:58:00,35.6,28.1,29.69,West,264,16.5,23.1,74,0.00,,,0.00,0.00,VWS V14.01,2013-02-11 10:58:00,
2013-02-11 05:01:00,35.7,28.6,29.69,WSW,257,20.9,29.7,75,0.00,,,0.00,0.00,VWS V14.01,2013-02-11 11:01:00,
2013-02-11 05:02:00,35.6,28.5,29.70,West,265,22.0,37.4,75,0.00,,,0.00,0.00,VWS V14.01,2013-02-11 11:02:00,
2013-02-11 05:04:00,35.6,28.5,29.69,West,278,28.6,36.3,75,0.00,,,0.00,0.00,VWS V14.01,2013-02-11 11:04:00,
2013-02-11 05:06:00,35.6,28.5,29.70,WNW,283,23.1,23.1,75,0.00,,,0.00,0.00,VWS V14.01,2013-02-11 11:06:00,
2013-02-11 05:07:00,35.6,28.5,29.70,West,267,27.5,29.7,75,0.00,,,0.00,0.00,VWS V14.01,2013-02-11 11:07:00,
2013-02-11 05:10:00,35.5,28.7,29.70,West,266,16.5,26.4,76,0.00,,,0.00,0.00,VWS V14.01,2013-02-11 11:10:00,
2013-02-11 05:11:00,35.4,28.9,29.70,WSW,244,19.8,19.8,77,0.00,,,0.00,0.00,VWS V14.01,2013-02-11 11:11:00,
2013-02-11 05:12:00,35.4,28.9,29.70,WSW,251,13.2,23.1,77,0.00,,,0.00,0.00,VWS V14.01,2013-02-11 11:12:00,
2013-02-11 05:13:00,35.4,28.9,29.70,SSW,207,22.0,22.0,77,0.00,,,0.00,0.00,VWS V14.01,2013-02-11 11:13:00,
2013-02-11 05:16:00,35.2,28.7,29.70,WSW,255,14.3,18.7,77,0.00,,,0.00,0.00,VWS V14.01,2013-02-11 11:16:00,
2013-02-11 05:17:00,35.2,29.0,29.70,West,271,13.2,18.7,78,0.00,,,0.00,0.00,VWS V14.01,2013-02-11 11:17:00,
2013-02-11 05:18:00,35.2,29.0,29.70,West,276,15.4,22.0,78,0.00,,,0.00,0.00,VWS V14.01,2013-02-11 11:18:00,
2013-02-11 05:22:00,35.2,29.0,29.70,WSW,237,18.7,24.2,78,0.00,,,0.00,0.00,VWS V14.01,2013-02-11 11:22:00,
2013-02-11 05:23:00,35.1,28.9,29.70,WSW,243,24.2,24.2,78,0.00,,,0.00,0.00,VWS V14.01,2013-02-11 11:23:00,
2013-02-11 05:24:00,35.1,28.9,29.70,WSW,257,13.2,24.2,78,0.00,,,0.00,0.00,VWS V14.01,2013-02-11 11:24:00,
2013-02-11 05:27:00,35.0,28.9,29.70,WSW,243,22.0,26.4,78,0.00,,,0.00,0.00,VWS V14.01,2013-02-11 11:27:00,
2013-02-11 05:28:00,35.0,28.9,29.70,West,274,11.0,26.4,78,0.00,,,0.00,0.00,VWS V14.01,2013-02-11 11:28:00,
2013-02-11 05:29:00,35.0,28.9,29.70,West,260,17.6,23.1,78,0.00,,,0.00,0.00,VWS V14.01,2013-02-11 11:29:00,
2013-02-11 05:33:00,35.0,28.9,29.70,WSW,243,19.8,24.2,78,0.00,,,0.00,0.00,VWS V14.01,2013-02-11 11:33:00,
2013-02-11 05:34:00,34.9,28.8,29.70,West,259,17.6,19.8,78,0.00,,,0.00,0.00,VWS V14.01,2013-02-11 11:34:00,
2013-02-11 05:35:00,34.9,28.8,29.70,West,259,13.2,19.8,78,0.00,,,0.00,0.00,VWS V14.01,2013-02-11 11:35:00,
2013-02-11 05:38:00,34.9,28.8,29.70,WSW,252,24.2,25.3,78,0.00,,,0.00,0.00,VWS V14.01,2013-02-11 11:38:00,
2013-02-11 05:39:00,34.9,28.8,29.70,WSW,254,16.5,20.9,78,0.00,,,0.00,0.00,VWS V14.01,2013-02-11 11:39:00,
2013-02-11 05:41:00,34.8,28.6,29.70,WSW,251,16.5,16.5,78,0.00,,,0.00,0.00,VWS V14.01,2013-02-11 11:41:00,
2013-02-11 05:43:00,34.8,28.6,29.70,WSW,247,16.5,19.8,78,0.00,,,0.00,0.00,VWS V14.01,2013-02-11 11:43:00,
2013-02-11 05:44:00,34.8,28.6,29.70,WSW,249,16.5,16.5,78,0.00,,,0.00,0.00,VWS V14.01,2013-02-11 11:44:00,
2013-02-11 05:45:00,34.8,28.6,29.70,West,264,27.5,27.5,78,0.00,,,0.00,0.00,VWS V14.01,2013-02-11 11:45:00,
2013-02-11 05:46:00,34.8,28.6,29.70,WSW,251,13.2,13.2,78,0.00,,,0.00,0.00,VWS V14.01,2013-02-11 11:46:00,
2013-02-11 05:49:00,34.8,28.6,29.70,WSW,257,15.4,20.9,78,0.00,,,0.00,0.00,VWS V14.01,2013-02-11 11:49:00,
2013-02-11 05:50:00,34.8,28.6,29.70,WSW,253,13.2,25.3,78,0.00,,,0.00,0.00,VWS V14.01,2013-02-11 11:50:00,
2013-02-11 05:52:00,34.7,28.5,29.70,SSW,208,17.6,17.6,78,0.00,,,0.00,0.00,VWS V14.01,2013-02-11 11:52:00,
2013-02-11 05:55:00,34.7,28.5,29.70,SW,231,19.8,25.3,78,0.00,,,0.00,0.00,VWS V14.01,2013-02-11 11:55:00,
2013-02-11 05:56:00,34.7,28.9,29.70,WSW,255,25.3,25.3,79,0.00,,,0.00,0.00,VWS V14.01,2013-02-11 11:56:00,
2013-02-11 05:58:00,34.7,28.5,29.70,West,266,16.5,20.9,78,0.00,,,0.00,0.00,VWS V14.01,2013-02-11 11:58:00,
2013-02-11 06:00:00,34.6,28.5,29.70,WSW,247,19.8,23.1,78,0.00,,,0.00,0.00,VWS V14.01,2013-02-11 12:00:00,
2013-02-11 06:01:00,34.6,28.5,29.70,WSW,253,24.2,26.4,78,0.00,,,0.00,0.00,VWS V14.01,2013-02-11 12:01:00,
2013-02-11 06:03:00,34.6,28.5,29.70,West,264,20.9,29.7,78,0.00,,,0.00,0.00,VWS V14.01,2013-02-11 12:03:00,
2013-02-11 06:06:00,34.6,28.1,29.71,SW,235,18.7,28.6,77,0.00,,,0.00,0.00,VWS V14.01,2013-02-11 12:06:00,
2013-02-11 06:07:00,34.6,28.1,29.71,West,259,17.6,26.4,77,0.00,,,0.00,0.00,VWS V14.01,2013-02-11 12:07:00,
2013-02-11 06:08:00,34.7,28.5,29.71,West,263,13.2,24.2,78,0.00,,,0.00,0.00,VWS V14.01,2013-02-11 12:08:00,
2013-02-11 06:11:00,34.6,28.5,29.71,WSW,251,25.3,35.2,78,0.00,,,0.00,0.00,VWS V14.01,2013-02-11 12:11:00,
2013-02-11 06:12:00,34.6,28.5,29.71,WSW,239,30.8,30.8,78,0.00,,,0.00,0.00,VWS V14.01,2013-02-11 12:12:00,
2013-02-11 06:13:00,34.6,28.5,29.71,West,272,24.2,34.1,78,0.00,,,0.00,0.00,VWS V14.01,2013-02-11 12:13:00,
2013-02-11 06:16:00,34.6,28.5,29.71,WNW,296,30.8,30.8,78,0.00,,,0.00,0.00,VWS V14.01,2013-02-11 12:16:00,
2013-02-11 06:17:00,34.6,28.5,29.72,West,266,17.6,19.8,78,0.00,,,0.00,0.00,VWS V14.01,2013-02-11 12:17:00,
2013-02-11 06:19:00,34.5,28.4,29.72,WNW,290,17.6,27.5,78,0.00,,,0.00,0.00,VWS V14.01,2013-02-11 12:19:00,
2013-02-11 06:21:00,34.5,28.4,29.72,SW,225,16.5,26.4,78,0.00,,,0.00,0.00,VWS V14.01,2013-02-11 12:21:00,
2013-02-11 06:23:00,34.4,28.3,29.72,WNW,287,19.8,27.5,78,0.00,,,0.00,0.00,VWS V14.01,2013-02-11 12:23:00,
2013-02-11 06:24:00,34.4,28.3,29.72,West,260,12.1,29.7,78,0.00,,,0.00,0.00,VWS V14.01,2013-02-11 12:24:00,
2013-02-11 06:26:00,34.4,28.3,29.72,WSW,255,14.3,19.8,78,0.00,,,0.00,0.00,VWS V14.01,2013-02-11 12:26:00,
2013-02-11 06:27:00,34.4,28.3,29.72,SW,222,13.2,19.8,78,0.00,,,0.00,0.00,VWS V14.01,2013-02-11 12:27:00,
2013-02-11 06:28:00,34.4,28.3,29.72,WNW,293,15.4,19.8,78,0.00,,,0.00,0.00,VWS V14.01,2013-02-11 12:28:00,
2013-02-11 06:29:00,34.3,28.2,29.72,WSW,247,22.0,27.5,78,0.00,,,0.00,0.00,VWS V14.01,2013-02-11 12:29:00,
2013-02-11 06:32:00,34.3,28.2,29.72,West,281,15.4,24.2,78,0.00,,,0.00,0.00,VWS V14.01,2013-02-11 12:32:00,
2013-02-11 06:33:00,34.3,28.2,29.72,WNW,287,16.5,20.9,78,0.00,,,0.00,0.00,VWS V14.01,2013-02-11 12:33:00,
2013-02-11 06:35:00,34.2,27.8,29.72,WSW,253,29.7,29.7,77,0.00,,,0.00,0.00,VWS V14.01,2013-02-11 12:35:00,
2013-02-11 06:37:00,34.2,27.8,29.73,West,264,16.5,17.6,77,0.00,,,0.00,0.00,VWS V14.01,2013-02-11 12:37:00,
2013-02-11 06:38:00,34.1,27.7,29.73,West,280,17.6,19.8,77,0.00,,,0.00,0.00,VWS V14.01,2013-02-11 12:38:00,
2013-02-11 06:40:00,34.1,28.0,29.73,WSW,237,20.9,20.9,78,0.00,,,0.00,0.00,VWS V14.01,2013-02-11 12:40:00,
2013-02-11 06:42:00,34.1,27.7,29.73,West,274,16.5,16.5,77,0.00,,,0.00,0.00,VWS V14.01,2013-02-11 12:42:00,
2013-02-11 06:43:00,34.1,27.7,29.73,West,274,13.2,19.8,77,0.00,,,0.00,0.00,VWS V14.01,2013-02-11 12:43:00,
2013-02-11 06:44:00,34.1,27.7,29.73,WSW,243,9.9,19.8,77,0.00,,,0.00,0.00,VWS V14.01,2013-02-11 12:44:00,
2013-02-11 06:46:00,34.1,27.7,29.73,WSW,243,25.3,31.9,77,0.00,,,0.00,0.00,VWS V14.01,2013-02-11 12:46:00,
2013-02-11 06:48:00,34.1,27.3,29.73,West,271,14.3,25.3,76,0.00,,,0.00,0.00,VWS V14.01,2013-02-11 12:48:00,
2013-02-11 06:49:00,34.1,27.3,29.73,SW,235,24.2,26.4,76,0.00,,,0.00,0.00,VWS V14.01,2013-02-11 12:49:00,
2013-02-11 06:51:00,34.1,27.3,29.73,West,276,26.4,30.8,76,0.00,,,0.00,0.00,VWS V14.01,2013-02-11 12:51:00,
2013-02-11 06:54:00,34.2,26.8,29.73,West,264,25.3,27.5,74,0.00,,,0.00,0.00,VWS V14.01,2013-02-11 12:54:00,
2013-02-11 06:55:00,34.2,26.8,29.73,WSW,249,17.6,22.0,74,0.00,,,0.00,0.00,VWS V14.01,2013-02-11 12:55:00,
2013-02-11 06:57:00,34.2,26.8,29.73,West,277,19.8,19.8,74,0.00,,,0.00,0.00,VWS V14.01,2013-02-11 12:57:00,
2013-02-11 06:59:00,34.2,26.8,29.73,WSW,239,26.4,33.0,74,0.00,,,0.00,0.00,VWS V14.01,2013-02-11 12:59:00,
2013-02-11 07:00:00,34.2,26.8,29.73,WSW,237,20.9,25.3,74,0.00,,,0.00,0.00,VWS V14.01,2013-02-11 13:00:00,
2013-02-11 07:03:00,34.2,26.8,29.73,West,263,27.5,31.9,74,0.00,,,0.00,0.00,VWS V14.01,2013-02-11 13:03:00,
2013-02-11 07:04:00,34.2,26.8,29.74,WNW,291,16.5,19.8,74,0.00,,,0.00,0.00,VWS V14.01,2013-02-11 13:04:00,
2013-02-11 07:05:00,34.2,26.8,29.74,West,262,22.0,30.8,74,0.00,,,0.00,0.00,VWS V14.01,2013-02-11 13:05:00,
2013-02-11 07:08:00,34.2,26.8,29.74,West,264,18.7,27.5,74,0.00,,,0.00,0.00,VWS V14.01,2013-02-11 13:08:00,
2013-02-11 07:10:00,34.2,26.8,29.74,West,266,30.8,30.8,74,0.00,,,0.00,0.00,VWS V14.01,2013-02-11 13:10:00,
2013-02-11 07:13:00,34.2,26.8,29.74,WNW,283,24.2,31.9,74,0.00,,,0.00,0.00,VWS V14.01,2013-02-11 13:13:00,
2013-02-11 07:15:00,34.2,26.8,29.74,WSW,244,26.4,27.5,74,0.00,,,0.00,0.00,VWS V14.01,2013-02-11 13:15:00,
2013-02-11 07:16:00,34.2,26.8,29.74,WSW,252,18.7,26.4,74,0.00,,,0.00,0.00,VWS V14.01,2013-02-11 13:16:00,
2013-02-11 07:19:00,34.2,27.1,29.74,WSW,245,22.0,27.5,75,0.00,,,0.00,5.00,VWS V14.01,2013-02-11 13:19:00,
2013-02-11 07:20:00,34.2,27.1,29.74,West,264,19.8,26.4,75,0.00,,,0.00,5.00,VWS V14.01,2013-02-11 13:20:00,
2013-02-11 07:22:00,34.1,26.7,29.75,WSW,254,17.6,22.0,74,0.00,,,0.00,5.00,VWS V14.01,2013-02-11 13:22:00,
2013-02-11 07:24:00,34.1,26.7,29.75,WSW,243,16.5,22.0,74,0.00,,,0.00,5.00,VWS V14.01,2013-02-11 13:24:00,
2013-02-11 07:25:00,34.1,26.7,29.75,WSW,257,20.9,20.9,74,0.00,,,0.00,5.00,VWS V14.01,2013-02-11 13:25:00,
2013-02-11 07:28:00,34.2,26.8,29.75,WNW,291,20.9,20.9,74,0.00,,,0.00,5.00,VWS V14.01,2013-02-11 13:28:00,
2013-02-11 07:29:00,34.1,27.0,29.75,WSW,239,22.0,22.0,75,0.00,,,0.00,5.00,VWS V14.01,2013-02-11 13:29:00,
2013-02-11 07:30:00,34.2,27.1,29.75,WNW,283,14.3,17.6,75,0.00,,,0.00,7.00,VWS V14.01,2013-02-11 13:30:00,
2013-02-11 07:33:00,34.1,27.0,29.75,West,262,17.6,18.7,75,0.00,,,0.00,7.00,VWS V14.01,2013-02-11 13:33:00,
2013-02-11 07:34:00,34.1,27.0,29.75,West,265,16.5,16.5,75,0.00,,,0.00,7.00,VWS V14.01,2013-02-11 13:34:00,
2013-02-11 07:36:00,34.1,27.0,29.75,WSW,256,13.2,16.5,75,0.00,,,0.00,7.00,VWS V14.01,2013-02-11 13:36:00,
2013-02-11 07:38:00,34.1,27.0,29.75,WSW,256,25.3,25.3,75,0.00,,,0.00,9.00,VWS V14.01,2013-02-11 13:38:00,
2013-02-11 07:40:00,34.1,27.0,29.75,West,266,14.3,17.6,75,0.00,,,0.00,9.00,VWS V14.01,2013-02-11 13:40:00,
2013-02-11 07:41:00,34.1,27.0,29.75,WSW,254,18.7,27.5,75,0.00,,,0.00,9.00,VWS V14.01,2013-02-11 13:41:00,
2013-02-11 07:43:00,34.1,27.0,29.76,West,268,20.9,23.1,75,0.00,,,0.00,9.00,VWS V14.01,2013-02-11 13:43:00,
2013-02-11 07:45:00,34.1,27.0,29.76,West,276,15.4,18.7,75,0.00,,,0.00,11.00,VWS V14.01,2013-02-11 13:45:00,
2013-02-11 07:47:00,34.1,27.0,29.76,West,274,15.4,17.6,75,0.00,,,0.00,11.00,VWS V14.01,2013-02-11 13:47:00,
2013-02-11 07:48:00,34.1,27.0,29.76,West,267,15.4,23.1,75,0.00,,,0.00,11.00,VWS V14.01,2013-02-11 13:48:00,
2013-02-11 07:50:00,34.1,27.0,29.76,WNW,287,19.8,20.9,75,0.00,,,0.00,11.00,VWS V14.01,2013-02-11 13:50:00,
2013-02-11 07:52:00,34.1,27.0,29.76,West,265,13.2,22.0,75,0.00,,,0.00,11.00,VWS V14.01,2013-02-11 13:52:00,
2013-02-11 07:53:00,34.1,27.0,29.76,SW,225,15.4,15.4,75,0.00,,,0.00,12.00,VWS V14.01,2013-02-11 13:53:00,
2013-02-11 07:54:00,34.1,27.0,29.76,WSW,245,15.4,25.3,75,0.00,,,0.00,12.00,VWS V14.01,2013-02-11 13:54:00,
2013-02-11 07:55:00,34.1,27.0,29.76,WSW,243,15.4,20.9,75,0.00,,,0.00,12.00,VWS V14.01,2013-02-11 13:55:00,
2013-02-11 07:57:00,34.1,27.0,29.76,West,271,23.1,24.2,75,0.00,,,0.00,12.00,VWS V14.01,2013-02-11 13:57:00,
2013-02-11 07:59:00,34.1,26.7,29.76,West,262,13.2,14.3,74,0.00,,,0.00,12.00,VWS V14.01,2013-02-11 13:59:00,
2013-02-11 08:00:00,34.1,26.7,29.76,WSW,243,14.3,22.0,74,0.00,,,0.00,12.00,VWS V14.01,2013-02-11 14:00:00,
2013-02-11 08:03:00,34.1,26.7,29.76,West,280,19.8,25.3,74,0.00,,,0.00,14.00,VWS V14.01,2013-02-11 14:03:00,
2013-02-11 08:05:00,34.1,26.7,29.76,West,274,24.2,24.2,74,0.00,,,0.00,14.00,VWS V14.01,2013-02-11 14:05:00,
2013-02-11 08:06:00,34.1,26.7,29.76,WSW,257,22.0,23.1,74,0.00,,,0.00,14.00,VWS V14.01,2013-02-11 14:06:00,
2013-02-11 08:08:00,34.1,26.7,29.77,West,274,26.4,26.4,74,0.00,,,0.00,14.00,VWS V14.01,2013-02-11 14:08:00,
2013-02-11 08:10:00,34.1,26.7,29.76,WSW,239,19.8,26.4,74,0.00,,,0.00,16.00,VWS V14.01,2013-02-11 14:10:00,
2013-02-11 08:11:00,34.1,26.7,29.77,WSW,253,20.9,22.0,74,0.00,,,0.00,16.00,VWS V14.01,2013-02-11 14:11:00,
2013-02-11 08:12:00,34.1,26.7,29.77,SW,231,19.8,20.9,74,0.00,,,0.00,16.00,VWS V14.01,2013-02-11 14:12:00,
2013-02-11 08:13:00,34.1,26.7,29.77,SW,222,16.5,25.3,74,0.00,,,0.00,18.00,VWS V14.01,2013-02-11 14:13:00,
2013-02-11 08:15:00,34.1,27.0,29.76,WSW,251,26.4,26.4,75,0.00,,,0.00,23.00,VWS V14.01,2013-02-11 14:15:00,
2013-02-11 08:16:00,34.2,27.1,29.76,WNW,285,16.5,24.2,75,0.00,,,0.00,26.00,VWS V14.01,2013-02-11 14:16:00,
2013-02-11 08:18:00,34.1,27.0,29.77,WNW,289,25.3,25.3,75,0.00,,,0.00,21.00,VWS V14.01,2013-02-11 14:18:00,
2013-02-11 08:20:00,34.1,26.7,29.77,West,266,9.9,12.1,74,0.00,,,0.00,19.00,VWS V14.01,2013-02-11 14:20:00,
2013-02-11 08:22:00,34.1,27.0,29.76,West,259,26.4,26.4,75,0.00,,,0.00,33.00,VWS V14.01,2013-02-11 14:22:00,
2013-02-11 08:24:00,34.1,26.7,29.76,West,259,23.1,28.6,74,0.00,,,0.00,53.00,VWS V14.01,2013-02-11 14:24:00,
2013-02-11 08:26:00,34.1,26.7,29.76,SW,236,23.1,23.1,74,0.00,,,0.00,54.00,VWS V14.01,2013-02-11 14:26:00,
2013-02-11 08:27:00,34.1,26.7,29.76,WNW,282,24.2,24.2,74,0.00,,,0.00,56.00,VWS V14.01,2013-02-11 14:27:00,
2013-02-11 08:29:00,34.1,26.7,29.76,WSW,244,16.5,27.5,74,0.00,,,0.00,54.00,VWS V14.01,2013-02-11 14:29:00,
2013-02-11 08:30:00,34.1,26.7,29.76,WNW,292,16.5,31.9,74,0.00,,,0.00,54.00,VWS V14.01,2013-02-11 14:30:00,
2013-02-11 08:31:00,34.1,26.7,29.76,West,266,17.6,26.4,74,0.00,,,0.00,53.00,VWS V14.01,2013-02-11 14:31:00,
2013-02-11 08:32:00,34.1,26.7,29.76,WSW,252,29.7,29.7,74,0.00,,,0.00,53.00,VWS V14.01,2013-02-11 14:32:00,
2013-02-11 08:35:00,34.1,27.0,29.76,West,272,27.5,27.5,75,0.00,,,0.00,54.00,VWS V14.01,2013-02-11 14:35:00,
2013-02-11 08:36:00,34.1,27.0,29.77,WSW,246,20.9,28.6,75,0.00,,,0.00,56.00,VWS V14.01,2013-02-11 14:36:00,
2013-02-11 08:38:00,34.1,27.0,29.77,WSW,239,19.8,20.9,75,0.00,,,0.00,63.00,VWS V14.01,2013-02-11 14:38:00,
2013-02-11 08:40:00,34.1,27.0,29.77,West,270,24.2,34.1,75,0.00,,,0.00,62.00,VWS V14.01,2013-02-11 14:40:00,
2013-02-11 08:42:00,34.1,27.0,29.77,WSW,242,24.2,24.2,75,0.00,,,0.00,60.00,VWS V14.01,2013-02-11 14:42:00,
2013-02-11 08:43:00,34.1,27.0,29.77,WSW,257,15.4,26.4,75,0.00,,,0.00,62.00,VWS V14.01,2013-02-11 14:43:00,
2013-02-11 08:45:00,34.1,27.0,29.77,WSW,253,30.8,30.8,75,0.00,,,0.00,62.00,VWS V14.01,2013-02-11 14:45:00,
2013-02-11 08:46:00,34.1,27.0,29.77,WSW,256,24.2,36.3,75,0.00,,,0.00,62.00,VWS V14.01,2013-02-11 14:46:00,
2013-02-11 08:47:00,34.1,27.0,29.77,WNW,295,15.4,15.4,75,0.00,,,0.00,49.00,VWS V14.01,2013-02-11 14:47:00,
2013-02-11 08:48:00,34.1,27.0,29.77,SW,219,15.4,18.7,75,0.00,,,0.00,49.00,VWS V14.01,2013-02-11 14:48:00,
2013-02-11 08:51:00,34.1,27.3,29.77,SW,214,17.6,17.6,76,0.00,,,0.00,53.00,VWS V14.01,2013-02-11 14:51:00,
2013-02-11 08:52:00,34.1,27.0,29.77,SW,224,19.8,24.2,75,0.00,,,0.00,58.00,VWS V14.01,2013-02-11 14:52:00,
2013-02-11 08:53:00,34.1,27.0,29.78,WSW,245,26.4,26.4,75,0.00,,,0.00,63.00,VWS V14.01,2013-02-11 14:53:00,
2013-02-11 08:54:00,34.1,27.0,29.78,SW,218,19.8,26.4,75,0.00,,,0.00,72.00,VWS V14.01,2013-02-11 14:54:00,
2013-02-11 08:56:00,34.1,27.3,29.77,West,275,19.8,23.1,76,0.00,,,0.00,83.00,VWS V14.01,2013-02-11 14:56:00,
2013-02-11 08:57:00,34.1,27.3,29.77,WSW,249,28.6,29.7,76,0.00,,,0.00,86.00,VWS V14.01,2013-02-11 14:57:00,
2013-02-11 08:58:00,34.1,27.3,29.77,WSW,256,17.6,17.6,76,0.00,,,0.00,83.00,VWS V14.01,2013-02-11 14:58:00,
2013-02-11 08:59:00,34.1,27.3,29.78,WSW,245,16.5,16.5,76,0.00,,,0.00,84.00,VWS V14.01,2013-02-11 14:59:00,
2013-02-11 09:01:00,34.1,27.3,29.78,West,262,23.1,23.1,76,0.00,,,0.00,86.00,VWS V14.01,2013-02-11 15:01:00,
2013-02-11 09:02:00,34.1,27.3,29.78,WSW,253,18.7,18.7,76,0.00,,,0.00,88.00,VWS V14.01,2013-02-11 15:02:00,
2013-02-11 09:03:00,34.1,27.3,29.78,SW,235,15.4,16.5,76,0.00,,,0.00,98.00,VWS V14.01,2013-02-11 15:03:00,
2013-02-11 09:05:00,34.1,27.3,29.78,West,268,15.4,20.9,76,0.00,,,0.00,91.00,VWS V14.01,2013-02-11 15:05:00,
2013-02-11 09:06:00,34.1,27.3,29.78,WSW,243,29.7,29.7,76,0.00,,,0.00,84.00,VWS V14.01,2013-02-11 15:06:00,
2013-02-11 09:08:00,34.1,27.3,29.78,WSW,246,18.7,24.2,76,0.00,,,0.00,81.00,VWS V14.01,2013-02-11 15:08:00,
2013-02-11 09:10:00,34.1,27.3,29.78,West,274,24.2,28.6,76,0.00,,,0.00,93.00,VWS V14.01,2013-02-11 15:10:00,
2013-02-11 09:11:00,34.1,27.3,29.79,West,260,18.7,23.1,76,0.00,,,0.00,90.00,VWS V14.01,2013-02-11 15:11:00,
2013-02-11 09:13:00,34.1,27.3,29.79,WSW,255,17.6,18.7,76,0.00,,,0.00,95.00,VWS V14.01,2013-02-11 15:13:00,
2013-02-11 09:14:00,34.1,27.3,29.79,WSW,249,27.5,27.5,76,0.00,,,0.00,95.00,VWS V14.01,2013-02-11 15:14:00,
2013-02-11 09:15:00,34.1,27.3,29.79,WSW,247,24.2,24.2,76,0.00,,,0.00,102.00,VWS V14.01,2013-02-11 15:15:00,
2013-02-11 09:17:00,34.1,27.0,29.79,WSW,239,16.5,27.5,75,0.00,,,0.00,111.00,VWS V14.01,2013-02-11 15:17:00,
2013-02-11 09:18:00,34.1,27.0,29.79,WSW,256,11.0,27.5,75,0.00,,,0.00,135.00,VWS V14.01,2013-02-11 15:18:00,
2013-02-11 09:20:00,34.1,27.3,29.79,SSW,206,17.6,26.4,76,0.00,,,0.00,130.00,VWS V14.01,2013-02-11 15:20:00,
2013-02-11 09:21:00,34.1,27.3,29.79,West,272,25.3,27.5,76,0.00,,,0.00,130.00,VWS V14.01,2013-02-11 15:21:00,
2013-02-11 09:22:00,34.2,27.1,29.79,WSW,242,25.3,29.7,75,0.00,,,0.00,105.00,VWS V14.01,2013-02-11 15:22:00,
2013-02-11 09:24:00,34.2,27.1,29.79,West,261,23.1,23.1,75,0.00,,,0.00,134.00,VWS V14.01,2013-02-11 15:24:00,
2013-02-11 09:26:00,34.2,27.1,29.79,West,276,15.4,27.5,75,0.00,,,0.00,104.00,VWS V14.01,2013-02-11 15:26:00,
2013-02-11 09:27:00,34.2,27.1,29.79,WSW,253,20.9,38.5,75,0.00,,,0.00,88.00,VWS V14.01,2013-02-11 15:27:00,
2013-02-11 09:30:00,34.2,27.1,29.79,West,271,20.9,20.9,75,0.00,,,0.00,91.00,VWS V14.01,2013-02-11 15:30:00,
2013-02-11 09:31:00,34.2,27.1,29.79,West,264,24.2,24.2,75,0.00,,,0.00,91.00,VWS V14.01,2013-02-11 15:31:00,
2013-02-11 09:32:00,34.3,27.2,29.79,WSW,258,26.4,26.4,75,0.00,,,0.00,86.00,VWS V14.01,2013-02-11 15:32:00,
2013-02-11 09:35:00,34.2,27.1,29.80,West,277,27.5,27.5,75,0.00,,,0.00,81.00,VWS V14.01,2013-02-11 15:35:00,
2013-02-11 09:36:00,34.2,27.1,29.80,WSW,253,19.8,27.5,75,0.00,,,0.00,84.00,VWS V14.01,2013-02-11 15:36:00,
2013-02-11 09:37:00,34.2,27.1,29.80,West,278,20.9,24.2,75,0.00,,,0.00,95.00,VWS V14.01,2013-02-11 15:37:00,
2013-02-11 09:40:00,34.2,27.1,29.80,West,261,16.5,23.1,75,0.00,,,0.00,100.00,VWS V14.01,2013-02-11 15:40:00,
2013-02-11 09:41:00,34.2,27.1,29.80,WNW,289,17.6,19.8,75,0.00,,,0.00,88.00,VWS V14.01,2013-02-11 15:41:00,
2013-02-11 09:43:00,34.2,26.8,29.80,WSW,252,17.6,26.4,74,0.00,,,0.00,93.00,VWS V14.01,2013-02-11 15:43:00,
2013-02-11 09:45:00,34.1,26.7,29.80,West,275,14.3,22.0,74,0.00,,,0.00,105.00,VWS V14.01,2013-02-11 15:45:00,
2013-02-11 09:47:00,34.1,26.7,29.80,WSW,254,18.7,20.9,74,0.00,,,0.00,97.00,VWS V14.01,2013-02-11 15:47:00,
2013-02-11 09:48:00,34.1,26.7,29.80,West,262,18.7,24.2,74,0.00,,,0.00,97.00,VWS V14.01,2013-02-11 15:48:00,
2013-02-11 09:51:00,34.1,27.0,29.81,WSW,246,14.3,28.6,75,0.00,,,0.00,104.00,VWS V14.01,2013-02-11 15:51:00,
2013-02-11 09:52:00,34.1,26.7,29.80,WSW,256,28.6,28.6,74,0.00,,,0.00,98.00,VWS V14.01,2013-02-11 15:52:00,
2013-02-11 09:53:00,34.1,26.7,29.81,WSW,239,18.7,28.6,74,0.00,,,0.00,102.00,VWS V14.01,2013-02-11 15:53:00,
2013-02-11 09:56:00,34.0,26.6,29.81,West,266,18.7,23.1,74,0.00,,,0.00,98.00,VWS V14.01,2013-02-11 15:56:00,
2013-02-11 09:57:00,34.0,26.6,29.81,WSW,251,20.9,23.1,74,0.00,,,0.00,98.00,VWS V14.01,2013-02-11 15:57:00,
2013-02-11 09:58:00,34.0,26.9,29.81,WNW,289,19.8,35.2,75,0.00,,,0.00,111.00,VWS V14.01,2013-02-11 15:58:00,
2013-02-11 10:01:00,34.0,26.6,29.81,WSW,256,20.9,20.9,74,0.00,,,0.00,98.00,VWS V14.01,2013-02-11 16:01:00,
2013-02-11 10:03:00,34.0,26.6,29.81,West,281,15.4,29.7,74,0.00,,,0.00,86.00,VWS V14.01,2013-02-11 16:03:00,
2013-02-11 10:04:00,34.0,26.9,29.81,West,262,29.7,29.7,75,0.00,,,0.00,88.00,VWS V14.01,2013-02-11 16:04:00,
2013-02-11 10:07:00,34.0,26.9,29.81,West,270,16.5,28.6,75,0.00,,,0.00,125.00,VWS V14.01,2013-02-11 16:07:00,
2013-02-11 10:09:00,34.0,26.9,29.82,WSW,255,27.5,31.9,75,0.00,,,0.00,113.00,VWS V14.01,2013-02-11 16:09:00,
2013-02-11 10:10:00,34.0,26.9,29.82,SW,236,24.2,27.5,75,0.00,,,0.00,111.00,VWS V14.01,2013-02-11 16:10:00,
2013-02-11 10:12:00,34.0,26.6,29.82,West,278,11.0,12.1,74,0.00,,,0.00,102.00,VWS V14.01,2013-02-11 16:12:00,
2013-02-11 10:14:00,34.0,26.9,29.82,WSW,243,14.3,16.5,75,0.00,,,0.00,105.00,VWS V14.01,2013-02-11 16:14:00,
2013-02-11 10:15:00,34.0,26.9,29.82,WSW,245,30.8,30.8,75,0.00,,,0.00,97.00,VWS V14.01,2013-02-11 16:15:00,
2013-02-11 10:17:00,34.0,26.6,29.82,West,272,23.1,26.4,74,0.00,,,0.00,97.00,VWS V14.01,2013-02-11 16:17:00,
2013-02-11 10:19:00,34.0,26.6,29.82,West,259,18.7,25.3,74,0.00,,,0.00,98.00,VWS V14.01,2013-02-11 16:19:00,
2013-02-11 10:20:00,34.0,26.6,29.81,WNW,293,16.5,30.8,74,0.00,,,0.00,98.00,VWS V14.01,2013-02-11 16:20:00,
2013-02-11 10:21:00,33.9,26.5,29.82,WSW,249,25.3,26.4,74,0.00,,,0.00,98.00,VWS V14.01,2013-02-11 16:21:00,
2013-02-11 10:22:00,33.9,26.5,29.82,WSW,247,27.5,27.5,74,0.00,,,0.00,91.00,VWS V14.01,2013-02-11 16:22:00,
2013-02-11 10:24:00,34.0,26.9,29.82,West,281,13.2,15.4,75,0.00,,,0.00,86.00,VWS V14.01,2013-02-11 16:24:00,
2013-02-11 10:25:00,34.0,26.9,29.82,WNW,284,12.1,24.2,75,0.00,,,0.00,90.00,VWS V14.01,2013-02-11 16:25:00,
2013-02-11 10:26:00,33.9,26.8,29.83,West,273,27.5,27.5,75,0.00,,,0.00,86.00,VWS V14.01,2013-02-11 16:26:00,
2013-02-11 10:28:00,34.0,26.6,29.83,West,266,19.8,26.4,74,0.00,,,0.00,91.00,VWS V14.01,2013-02-11 16:28:00,
2013-02-11 10:30:00,33.9,26.5,29.83,WSW,255,25.3,26.4,74,0.00,,,0.00,93.00,VWS V14.01,2013-02-11 16:30:00,
2013-02-11 10:31:00,33.9,26.5,29.83,NW,310,18.7,18.7,74,0.00,,,0.00,98.00,VWS V14.01,2013-02-11 16:31:00,
2013-02-11 10:33:00,33.9,26.5,29.83,SW,233,18.7,18.7,74,0.00,,,0.00,104.00,VWS V14.01,2013-02-11 16:33:00,
2013-02-11 10:35:00,34.0,26.6,29.83,WNW,292,12.1,24.2,74,0.00,,,0.00,90.00,VWS V14.01,2013-02-11 16:35:00,
2013-02-11 10:36:00,34.0,26.6,29.83,WNW,286,14.3,20.9,74,0.00,,,0.00,90.00,VWS V14.01,2013-02-11 16:36:00,
2013-02-11 10:37:00,34.0,26.6,29.83,WNW,303,20.9,33.0,74,0.00,,,0.00,88.00,VWS V14.01,2013-02-11 16:37:00,
2013-02-11 10:38:00,34.0,26.6,29.83,WSW,257,19.8,25.3,74,0.00,,,0.00,90.00,VWS V14.01,2013-02-11 16:38:00,
2013-02-11 10:40:00,34.0,26.6,29.83,West,259,24.2,25.3,74,0.00,,,0.00,86.00,VWS V14.01,2013-02-11 16:40:00,
2013-02-11 10:41:00,34.0,26.6,29.83,West,280,20.9,25.3,74,0.00,,,0.00,86.00,VWS V14.01,2013-02-11 16:41:00,
2013-02-11 10:42:00,34.0,26.6,29.83,WSW,251,28.6,31.9,74,0.00,,,0.00,90.00,VWS V14.01,2013-02-11 16:42:00,
2013-02-11 10:44:00,34.0,26.6,29.83,WSW,239,13.2,20.9,74,0.00,,,0.00,95.00,VWS V14.01,2013-02-11 16:44:00,
2013-02-11 10:45:00,34.0,26.6,29.83,WNW,292,24.2,26.4,74,0.00,,,0.00,98.00,VWS V14.01,2013-02-11 16:45:00,
2013-02-11 10:46:00,34.0,26.6,29.83,WSW,258,20.9,26.4,74,0.00,,,0.00,105.00,VWS V14.01,2013-02-11 16:46:00,
2013-02-11 10:47:00,34.1,26.7,29.83,West,267,17.6,20.9,74,0.00,,,0.00,111.00,VWS V14.01,2013-02-11 16:47:00,
2013-02-11 10:50:00,34.1,26.7,29.83,West,268,24.2,29.7,74,0.00,,,0.00,156.00,VWS V14.01,2013-02-11 16:50:00,
2013-02-11 10:51:00,34.1,26.7,29.83,WSW,252,25.3,29.7,74,0.00,,,0.00,162.00,VWS V14.01,2013-02-11 16:51:00,
2013-02-11 10:52:00,34.1,26.4,29.83,WSW,246,23.1,26.4,73,0.00,,,0.00,171.00,VWS V14.01,2013-02-11 16:52:00,
2013-02-11 10:55:00,34.2,26.5,29.83,WNW,285,13.2,19.8,73,0.00,,,0.00,185.00,VWS V14.01,2013-02-11 16:55:00,
2013-02-11 10:56:00,34.2,26.5,29.83,WSW,256,22.0,22.0,73,0.00,,,0.00,190.00,VWS V14.01,2013-02-11 16:56:00,
2013-02-11 10:58:00,34.2,26.8,29.83,WSW,247,26.4,26.4,74,0.00,,,0.00,183.00,VWS V14.01,2013-02-11 16:58:00,
2013-02-11 11:01:00,34.3,26.6,29.84,WSW,254,12.1,12.1,73,0.00,,,0.00,172.00,VWS V14.01,2013-02-11 17:01:00,
2013-02-11 11:02:00,34.3,26.9,29.84,West,260,12.1,12.1,74,0.00,,,0.00,172.00,VWS V14.01,2013-02-11 17:02:00,
2013-02-11 11:03:00,34.3,26.9,29.84,WSW,245,16.5,30.8,74,0.00,,,0.00,162.00,VWS V14.01,2013-02-11 17:03:00,
2013-02-11 11:07:00,34.3,26.6,29.84,SW,231,17.6,25.3,73,0.00,,,0.00,155.00,VWS V14.01,2013-02-11 17:07:00,
2013-02-11 11:08:00,34.3,26.6,29.84,WSW,249,15.4,16.5,73,0.00,,,0.00,141.00,VWS V14.01,2013-02-11 17:08:00,
2013-02-11 11:09:00,34.3,26.6,29.84,West,261,14.3,19.8,73,0.00,,,0.00,139.00,VWS V14.01,2013-02-11 17:09:00,
2013-02-11 11:12:00,34.3,26.6,29.84,WSW,251,20.9,20.9,73,0.00,,,0.00,137.00,VWS V14.01,2013-02-11 17:12:00,
2013-02-11 11:13:00,34.3,26.9,29.84,West,268,18.7,23.1,74,0.00,,,0.00,121.00,VWS V14.01,2013-02-11 17:13:00,
2013-02-11 11:14:00,34.3,26.9,29.84,WSW,248,15.4,26.4,74,0.00,,,0.00,123.00,VWS V14.01,2013-02-11 17:14:00,
2013-02-11 11:17:00,34.3,26.9,29.84,WSW,256,22.0,24.2,74,0.00,,,0.00,144.00,VWS V14.01,2013-02-11 17:17:00,
2013-02-11 11:19:00,34.3,26.9,29.84,West,274,24.2,24.2,74,0.00,,,0.00,148.00,VWS V14.01,2013-02-11 17:19:00,
2013-02-11 11:23:00,34.3,26.9,29.84,West,261,15.4,16.5,74,0.00,,,0.00,188.00,VWS V14.01,2013-02-11 17:23:00,
2013-02-11 11:25:00,34.3,26.9,29.84,West,262,20.9,27.5,74,0.00,,,0.00,200.00,VWS V14.01,2013-02-11 17:25:00,
2013-02-11 11:26:00,34.3,26.9,29.84,WSW,247,16.5,27.5,74,0.00,,,0.00,188.00,VWS V14.01,2013-02-11 17:26:00,
2013-02-11 11:30:00,34.3,27.2,29.84,West,281,18.7,23.1,75,0.00,,,0.00,202.00,VWS V14.01,2013-02-11 17:30:00,
2013-02-11 11:33:00,34.4,27.0,29.84,West,278,34.1,34.1,74,0.00,,,0.00,207.00,VWS V14.01,2013-02-11 17:33:00,
2013-02-11 11:35:00,34.4,27.0,29.84,West,276,15.4,28.6,74,0.00,,,0.00,193.00,VWS V14.01,2013-02-11 17:35:00,
2013-02-11 11:38:00,34.4,27.0,29.84,WSW,253,14.3,34.1,74,0.00,,,0.00,218.00,VWS V14.01,2013-02-11 17:38:00,
2013-02-11 11:40:00,34.4,27.3,29.84,West,280,13.2,20.9,75,0.00,,,0.00,202.00,VWS V14.01,2013-02-11 17:40:00,
2013-02-11 11:42:00,34.4,27.3,29.84,West,264,26.4,26.4,75,0.00,,,0.00,169.00,VWS V14.01,2013-02-11 17:42:00,
2013-02-11 11:45:00,34.4,27.3,29.84,WNW,285,19.8,29.7,75,0.00,,,0.00,179.00,VWS V14.01,2013-02-11 17:45:00,
2013-02-11 11:46:00,34.4,27.0,29.84,WNW,289,11.0,27.5,74,0.00,,,0.00,181.00,VWS V14.01,2013-02-11 17:46:00,
2013-02-11 11:47:00,34.4,27.0,29.85,WSW,256,19.8,19.8,74,0.00,,,0.00,202.00,VWS V14.01,2013-02-11 17:47:00,
2013-02-11 11:50:00,34.4,27.3,29.85,SW,233,18.7,24.2,75,0.00,,,0.00,197.00,VWS V14.01,2013-02-11 17:50:00,
2013-02-11 11:52:00,34.4,27.0,29.85,WSW,251,16.5,18.7,74,0.00,,,0.00,193.00,VWS V14.01,2013-02-11 17:52:00,
2013-02-11 11:53:00,34.4,27.0,29.85,WSW,252,27.5,27.5,74,0.00,,,0.00,193.00,VWS V14.01,2013-02-11 17:53:00,
2013-02-11 11:56:00,34.3,26.9,29.85,WSW,249,17.6,27.5,74,0.00,,,0.00,206.00,VWS V14.01,2013-02-11 17:56:00,
2013-02-11 11:57:00,34.3,26.9,29.85,WSW,252,16.5,33.0,74,0.00,,,0.00,206.00,VWS V14.01,2013-02-11 17:57:00,
2013-02-11 11:58:00,34.3,26.9,29.85,West,259,17.6,28.6,74,0.00,,,0.00,220.00,VWS V14.01,2013-02-11 17:58:00,
2013-02-11 12:01:00,34.3,26.9,29.85,WSW,243,22.0,22.0,74,0.00,,,0.00,206.00,VWS V14.01,2013-02-11 18:01:00,
2013-02-11 12:03:00,34.4,27.0,29.85,West,272,14.3,26.4,74,0.00,,,0.00,221.00,VWS V14.01,2013-02-11 18:03:00,
2013-02-11 12:04:00,34.4,27.3,29.85,West,262,26.4,26.4,75,0.00,,,0.00,206.00,VWS V14.01,2013-02-11 18:04:00,
2013-02-11 12:06:00,34.4,27.0,29.85,West,265,29.7,29.7,74,0.00,,,0.00,174.00,VWS V14.01,2013-02-11 18:06:00,
2013-02-11 12:08:00,34.3,26.9,29.86,WSW,243,14.3,24.2,74,0.00,,,0.00,202.00,VWS V14.01,2013-02-11 18:08:00,
2013-02-11 12:09:00,34.3,26.9,29.86,West,281,19.8,28.6,74,0.00,,,0.00,209.00,VWS V14.01,2013-02-11 18:09:00,
2013-02-11 12:11:00,34.3,26.6,29.85,West,281,15.4,30.8,73,0.00,,,0.00,211.00,VWS V14.01,2013-02-11 18:11:00,
2013-02-11 12:13:00,34.3,26.6,29.86,WSW,253,17.6,17.6,73,0.00,,,0.00,239.00,VWS V14.01,2013-02-11 18:13:00,
2013-02-11 12:14:00,34.3,26.9,29.86,WSW,256,18.7,24.2,74,0.00,,,0.00,237.00,VWS V14.01,2013-02-11 18:14:00,
2013-02-11 12:17:00,34.3,26.9,29.86,NNW,330,16.5,23.1,74,0.00,,,0.00,153.00,VWS V14.01,2013-02-11 18:17:00,
2013-02-11 12:19:00,34.3,26.9,29.86,WSW,244,17.6,25.3,74,0.00,,,0.00,146.00,VWS V14.01,2013-02-11 18:19:00,
2013-02-11 12:20:00,34.3,26.9,29.86,WSW,248,20.9,29.7,74,0.00,,,0.00,137.00,VWS V14.01,2013-02-11 18:20:00,
2013-02-11 12:22:00,34.3,26.6,29.86,West,274,19.8,19.8,73,0.00,,,0.00,125.00,VWS V14.01,2013-02-11 18:22:00,
2013-02-11 12:24:00,34.2,26.5,29.86,SW,235,23.1,23.1,73,0.00,,,0.00,120.00,VWS V14.01,2013-02-11 18:24:00,
2013-02-11 12:25:00,34.1,26.4,29.86,West,271,23.1,35.2,73,0.00,,,0.00,118.00,VWS V14.01,2013-02-11 18:25:00,
2013-02-11 12:27:00,34.0,26.3,29.86,WNW,295,20.9,22.0,73,0.00,,,0.00,111.00,VWS V14.01,2013-02-11 18:27:00,
2013-02-11 12:30:00,33.8,26.4,29.86,West,279,23.1,24.2,74,0.00,,,0.00,105.00,VWS V14.01,2013-02-11 18:30:00,
2013-02-11 12:31:00,33.8,26.4,29.86,WNW,283,14.3,24.2,74,0.00,,,0.00,102.00,VWS V14.01,2013-02-11 18:31:00,
2013-02-11 12:32:00,33.8,26.4,29.87,WSW,239,30.8,31.9,74,0.00,,,0.00,97.00,VWS V14.01,2013-02-11 18:32:00,
2013-02-11 12:36:00,33.7,26.6,29.87,South,189,15.4,20.9,75,0.00,,,0.00,105.00,VWS V14.01,2013-02-11 18:36:00,
2013-02-11 12:38:00,33.6,26.2,29.87,WNW,292,22.0,22.0,74,0.00,,,0.00,105.00,VWS V14.01,2013-02-11 18:38:00,
2013-02-11 12:39:00,33.6,26.5,29.87,WNW,285,14.3,23.1,75,0.00,,,0.00,111.00,VWS V14.01,2013-02-11 18:39:00,
2013-02-11 12:41:00,33.6,26.5,29.87,WSW,256,15.4,16.5,75,0.00,,,0.00,107.00,VWS V14.01,2013-02-11 18:41:00,
2013-02-11 12:43:00,33.6,26.5,29.87,West,274,14.3,26.4,75,0.00,,,0.00,104.00,VWS V14.01,2013-02-11 18:43:00,
2013-02-11 12:46:00,33.6,26.5,29.87,WSW,253,23.1,35.2,75,0.00,,,0.00,125.00,VWS V14.01,2013-02-11 18:46:00,
2013-02-11 12:47:00,33.6,26.5,29.87,West,262,24.2,25.3,75,0.00,,,0.00,137.00,VWS V14.01,2013-02-11 18:47:00,
2013-02-11 12:49:00,33.6,26.5,29.87,WSW,258,19.8,19.8,75,0.00,,,0.00,111.00,VWS V14.01,2013-02-11 18:49:00,
2013-02-11 12:51:00,33.6,26.5,29.87,WNW,294,18.7,18.7,75,0.00,,,0.00,107.00,VWS V14.01,2013-02-11 18:51:00,
2013-02-11 12:52:00,33.6,26.5,29.87,West,281,12.1,22.0,75,0.00,,,0.00,109.00,VWS V14.01,2013-02-11 18:52:00,
2013-02-11 12:54:00,33.6,26.9,29.88,WNW,296,9.9,13.2,76,0.00,,,0.00,113.00,VWS V14.01,2013-02-11 18:54:00,
2013-02-11 12:57:00,33.5,26.8,29.87,West,261,11.0,16.5,76,0.00,,,0.00,104.00,VWS V14.01,2013-02-11 18:57:00,
2013-02-11 12:59:00,33.6,26.9,29.87,West,262,23.1,23.1,76,0.00,,,0.00,113.00,VWS V14.01,2013-02-11 18:59:00,
2013-02-11 13:03:00,33.5,26.4,29.88,West,272,26.4,26.4,75,0.00,,,0.00,118.00,VWS V14.01,2013-02-11 19:03:00,
2013-02-11 13:04:00,33.5,26.4,29.87,West,262,20.9,27.5,75,0.00,,,0.00,125.00,VWS V14.01,2013-02-11 19:04:00,
2013-02-11 13:05:00,33.5,26.4,29.87,West,264,25.3,26.4,75,0.00,,,0.00,128.00,VWS V14.01,2013-02-11 19:05:00,
2013-02-11 13:08:00,33.5,26.4,29.87,NW,324,26.4,26.4,75,0.00,,,0.00,134.00,VWS V14.01,2013-02-11 19:08:00,
2013-02-11 13:09:00,33.5,26.4,29.88,WNW,294,17.6,17.6,75,0.00,,,0.00,127.00,VWS V14.01,2013-02-11 19:09:00,
2013-02-11 13:10:00,33.5,26.4,29.88,WSW,239,13.2,26.4,75,0.00,,,0.00,132.00,VWS V14.01,2013-02-11 19:10:00,
2013-02-11 13:14:00,33.5,26.4,29.88,West,274,14.3,29.7,75,0.00,,,0.00,148.00,VWS V14.01,2013-02-11 19:14:00,
2013-02-11 13:15:00,33.5,26.4,29.88,WNW,293,12.1,26.4,75,0.00,,,0.00,153.00,VWS V14.01,2013-02-11 19:15:00,
2013-02-11 13:19:00,33.7,26.6,29.88,WNW,288,23.1,26.4,75,0.00,,,0.00,209.00,VWS V14.01,2013-02-11 19:19:00,
2013-02-11 13:20:00,33.7,26.6,29.88,West,264,23.1,26.4,75,0.00,,,0.00,244.00,VWS V14.01,2013-02-11 19:20:00,
2013-02-11 13:21:00,33.8,26.7,29.88,WNW,287,30.8,30.8,75,0.00,,,0.00,239.00,VWS V14.01,2013-02-11 19:21:00,
2013-02-11 13:24:00,33.9,26.5,29.88,West,280,24.2,29.7,74,0.00,,,0.00,176.00,VWS V14.01,2013-02-11 19:24:00,
2013-02-11 13:25:00,33.9,26.5,29.88,WNW,291,17.6,29.7,74,0.00,,,0.00,176.00,VWS V14.01,2013-02-11 19:25:00,
2013-02-11 13:26:00,33.9,26.5,29.88,West,270,27.5,27.5,74,0.00,,,0.00,183.00,VWS V14.01,2013-02-11 19:26:00,
2013-02-11 13:30:00,34.0,26.9,29.88,West,266,17.6,22.0,75,0.00,,,0.00,127.00,VWS V14.01,2013-02-11 19:30:00,
2013-02-11 13:31:00,33.9,26.8,29.88,WSW,247,15.4,27.5,75,0.00,,,0.00,128.00,VWS V14.01,2013-02-11 19:31:00,
2013-02-11 13:35:00,33.9,26.8,29.88,WSW,241,19.8,22.0,75,0.00,,,0.00,134.00,VWS V14.01,2013-02-11 19:35:00,
2013-02-11 13:37:00,33.8,26.7,29.88,WSW,254,22.0,25.3,75,0.00,,,0.00,116.00,VWS V14.01,2013-02-11 19:37:00,
2013-02-11 13:40:00,33.7,27.0,29.88,West,259,20.9,20.9,76,0.00,,,0.00,132.00,VWS V14.01,2013-02-11 19:40:00,
2013-02-11 13:41:00,33.7,27.0,29.88,WNW,287,14.3,20.9,76,0.00,,,0.00,141.00,VWS V14.01,2013-02-11 19:41:00,
2013-02-11 13:42:00,33.7,27.0,29.88,West,269,22.0,24.2,76,0.00,,,0.00,151.00,VWS V14.01,2013-02-11 19:42:00,
2013-02-11 13:43:00,33.7,27.0,29.88,West,268,22.0,24.2,76,0.00,,,0.00,151.00,VWS V14.01,2013-02-11 19:43:00,
2013-02-11 13:45:00,33.7,26.6,29.89,West,272,16.5,16.5,75,0.00,,,0.00,137.00,VWS V14.01,2013-02-11 19:45:00,
2013-02-11 13:46:00,33.7,26.6,29.89,West,271,15.4,25.3,75,0.00,,,0.00,139.00,VWS V14.01,2013-02-11 19:46:00,
2013-02-11 13:48:00,33.7,26.6,29.89,WSW,258,22.0,23.1,75,0.00,,,0.00,128.00,VWS V14.01,2013-02-11 19:48:00,
2013-02-11 13:50:00,33.7,27.0,29.89,West,271,22.0,23.1,76,0.00,,,0.00,114.00,VWS V14.01,2013-02-11 19:50:00,
2013-02-11 13:51:00,33.7,27.0,29.89,WNW,303,19.8,29.7,76,0.00,,,0.00,114.00,VWS V14.01,2013-02-11 19:51:00,
2013-02-11 13:53:00,33.7,27.0,29.89,WNW,295,16.5,18.7,76,0.00,,,0.00,105.00,VWS V14.01,2013-02-11 19:53:00,
2013-02-11 13:54:00,33.7,27.0,29.89,West,264,20.9,20.9,76,0.00,,,0.00,105.00,VWS V14.01,2013-02-11 19:54:00,
2013-02-11 13:55:00,33.7,27.0,29.89,West,268,18.7,18.7,76,0.00,,,0.00,118.00,VWS V14.01,2013-02-11 19:55:00,
2013-02-11 13:56:00,33.7,27.0,29.89,West,267,18.7,19.8,76,0.00,,,0.00,118.00,VWS V14.01,2013-02-11 19:56:00,
2013-02-11 13:58:00,33.7,27.0,29.89,WSW,241,17.6,22.0,76,0.00,,,0.00,130.00,VWS V14.01,2013-02-11 19:58:00,
2013-02-11 13:59:00,33.7,27.0,29.89,NW,304,12.1,22.0,76,0.00,,,0.00,144.00,VWS V14.01,2013-02-11 19:59:00,
2013-02-11 14:01:00,33.7,27.0,29.89,WNW,299,15.4,25.3,76,0.00,,,0.00,171.00,VWS V14.01,2013-02-11 20:01:00,
2013-02-11 14:03:00,33.8,27.0,29.89,West,268,11.0,13.2,76,0.00,,,0.00,163.00,VWS V14.01,2013-02-11 20:03:00,
2013-02-11 14:05:00,33.8,27.0,29.89,West,272,16.5,18.7,76,0.00,,,0.00,153.00,VWS V14.01,2013-02-11 20:05:00,
2013-02-11 14:06:00,33.9,27.1,29.89,NW,310,13.2,19.8,76,0.00,,,0.00,125.00,VWS V14.01,2013-02-11 20:06:00,
2013-02-11 14:07:00,33.9,27.1,29.89,West,280,9.9,19.8,76,0.00,,,0.00,125.00,VWS V14.01,2013-02-11 20:07:00,
2013-02-11 14:09:00,33.9,27.1,29.89,West,280,29.7,34.1,76,0.00,,,0.00,111.00,VWS V14.01,2013-02-11 20:09:00,
2013-02-11 14:11:00,33.9,26.8,29.90,WSW,248,15.4,29.7,75,0.00,,,0.00,118.00,VWS V14.01,2013-02-11 20:11:00,
2013-02-11 14:12:00,33.8,26.7,29.90,WNW,285,28.6,35.2,75,0.00,,,0.00,120.00,VWS V14.01,2013-02-11 20:12:00,
2013-02-11 14:14:00,33.8,26.7,29.90,West,264,24.2,24.2,75,0.00,,,0.00,132.00,VWS V14.01,2013-02-11 20:14:00,
2013-02-11 14:16:00,33.8,26.7,29.90,West,262,15.4,20.9,75,0.00,,,0.00,144.00,VWS V14.01,2013-02-11 20:16:00,
2013-02-11 14:17:00,33.8,26.7,29.90,WNW,283,15.4,19.8,75,0.00,,,0.00,176.00,VWS V14.01,2013-02-11 20:17:00,
2013-02-11 14:18:00,33.8,27.0,29.90,WSW,254,19.8,20.9,76,0.00,,,0.00,167.00,VWS V14.01,2013-02-11 20:18:00,
2013-02-11 14:19:00,33.8,26.7,29.90,WNW,301,11.0,15.4,75,0.00,,,0.00,132.00,VWS V14.01,2013-02-11 20:19:00,
2013-02-11 14:21:00,33.9,26.8,29.90,WNW,302,17.6,22.0,75,0.00,,,0.00,116.00,VWS V14.01,2013-02-11 20:21:00,
2013-02-11 14:23:00,33.9,26.8,29.90,WNW,285,18.7,25.3,75,0.00,,,0.00,130.00,VWS V14.01,2013-02-11 20:23:00,
2013-02-11 14:24:00,33.9,26.8,29.90,West,272,13.2,15.4,75,0.00,,,0.00,113.00,VWS V14.01,2013-02-11 20:24:00,
2013-02-11 14:27:00,33.9,26.8,29.90,West,266,18.7,18.7,75,0.00,,,0.00,123.00,VWS V14.01,2013-02-11 20:27:00,
2013-02-11 14:28:00,33.9,26.8,29.90,NW,313,13.2,19.8,75,0.00,,,0.00,127.00,VWS V14.01,2013-02-11 20:28:00,
2013-02-11 14:29:00,33.8,26.7,29.90,West,273,20.9,23.1,75,0.00,,,0.00,118.00,VWS V14.01,2013-02-11 20:29:00,
2013-02-11 14:30:00,33.9,26.8,29.91,West,281,18.7,18.7,75,0.00,,,0.00,111.00,VWS V14.01,2013-02-11 20:30:00,
2013-02-11 14:32:00,33.8,26.4,29.91,West,278,17.6,17.6,74,0.00,,,0.00,116.00,VWS V14.01,2013-02-11 20:32:00,
2013-02-11 14:33:00,33.8,26.4,29.91,WNW,288,14.3,14.3,74,0.00,,,0.00,121.00,VWS V14.01,2013-02-11 20:33:00,
2013-02-11 14:34:00,33.8,26.4,29.91,West,279,25.3,25.3,74,0.00,,,0.00,125.00,VWS V14.01,2013-02-11 20:34:00,
2013-02-11 14:35:00,33.8,26.4,29.91,WSW,257,13.2,26.4,74,0.00,,,0.00,116.00,VWS V14.01,2013-02-11 20:35:00,
2013-02-11 14:38:00,33.8,26.4,29.90,West,269,20.9,34.1,74,0.00,,,0.00,121.00,VWS V14.01,2013-02-11 20:38:00,
2013-02-11 14:39:00,33.8,26.4,29.91,West,271,31.9,31.9,74,0.00,,,0.00,113.00,VWS V14.01,2013-02-11 20:39:00,
2013-02-11 14:40:00,33.8,26.4,29.91,West,273,22.0,33.0,74,0.00,,,0.00,114.00,VWS V14.01,2013-02-11 20:40:00,
2013-02-11 14:41:00,33.8,26.4,29.91,West,266,27.5,27.5,74,0.00,,,0.00,114.00,VWS V14.01,2013-02-11 20:41:00,
2013-02-11 14:44:00,33.8,26.4,29.92,West,261,17.6,20.9,74,0.00,,,0.00,91.00,VWS V14.01,2013-02-11 20:44:00,
2013-02-11 14:46:00,33.7,26.3,29.92,WSW,239,24.2,24.2,74,0.00,,,0.00,102.00,VWS V14.01,2013-02-11 20:46:00,
2013-02-11 14:49:00,33.7,26.3,29.92,West,276,18.7,22.0,74,0.00,,,0.00,156.00,VWS V14.01,2013-02-11 20:49:00,
2013-02-11 14:50:00,33.7,26.3,29.92,West,276,16.5,22.0,74,0.00,,,0.00,156.00,VWS V14.01,2013-02-11 20:50:00,
2013-02-11 14:51:00,33.7,26.3,29.92,WSW,256,17.6,30.8,74,0.00,,,0.00,218.00,VWS V14.01,2013-02-11 20:51:00,
2013-02-11 14:52:00,33.7,26.0,29.92,West,276,20.9,28.6,73,0.00,,,0.00,206.00,VWS V14.01,2013-02-11 20:52:00,
2013-02-11 14:55:00,33.8,26.1,29.92,WNW,289,27.5,33.0,73,0.00,,,0.00,188.00,VWS V14.01,2013-02-11 20:55:00,
2013-02-11 14:56:00,33.8,26.1,29.92,West,271,14.3,31.9,73,0.00,,,0.00,178.00,VWS V14.01,2013-02-11 20:56:00,
2013-02-11 14:57:00,33.9,26.2,29.92,WSW,251,29.7,29.7,73,0.00,,,0.00,172.00,VWS V14.01,2013-02-11 20:57:00,
2013-02-11 15:01:00,33.9,26.2,29.92,West,280,17.6,22.0,73,0.00,,,0.00,163.00,VWS V14.01,2013-02-11 21:01:00,
2013-02-11 15:03:00,33.9,26.5,29.92,West,264,11.0,14.3,74,0.00,,,0.00,141.00,VWS V14.01,2013-02-11 21:03:00,
2013-02-11 15:06:00,33.9,26.5,29.92,West,266,23.1,23.1,74,0.00,,,0.00,109.00,VWS V14.01,2013-02-11 21:06:00,
2013-02-11 15:08:00,33.9,26.8,29.92,WNW,282,15.4,17.6,75,0.00,,,0.00,95.00,VWS V14.01,2013-02-11 21:08:00,
2013-02-11 15:11:00,33.9,26.8,29.92,West,280,12.1,20.9,75,0.00,,,0.00,83.00,VWS V14.01,2013-02-11 21:11:00,
2013-02-11 15:12:00,33.9,26.8,29.92,West,272,17.6,19.8,75,0.00,,,0.00,74.00,VWS V14.01,2013-02-11 21:12:00,
2013-02-11 15:14:00,33.8,26.4,29.92,WNW,287,17.6,26.4,74,0.00,,,0.00,70.00,VWS V14.01,2013-02-11 21:14:00,
2013-02-11 15:16:00,33.8,26.4,29.93,West,272,14.3,19.8,74,0.00,,,0.00,69.00,VWS V14.01,2013-02-11 21:16:00,
2013-02-11 15:17:00,33.7,26.3,29.93,West,265,12.1,14.3,74,0.00,,,0.00,70.00,VWS V14.01,2013-02-11 21:17:00,
2013-02-11 15:19:00,33.7,26.6,29.93,WNW,286,14.3,17.6,75,0.00,,,0.00,76.00,VWS V14.01,2013-02-11 21:19:00,
2013-02-11 15:22:00,33.7,26.6,29.93,West,276,25.3,30.8,75,0.00,,,0.00,86.00,VWS V14.01,2013-02-11 21:22:00,
2013-02-11 15:23:00,33.7,26.6,29.93,WNW,289,22.0,22.0,75,0.00,,,0.00,84.00,VWS V14.01,2013-02-11 21:23:00,
2013-02-11 15:24:00,33.6,26.5,29.93,West,279,18.7,18.7,75,0.00,,,0.00,79.00,VWS V14.01,2013-02-11 21:24:00,
2013-02-11 15:27:00,33.6,26.5,29.93,WNW,288,24.2,24.2,75,0.00,,,0.00,74.00,VWS V14.01,2013-02-11 21:27:00,
2013-02-11 15:28:00,33.6,26.2,29.93,West,259,18.7,20.9,74,0.00,,,0.00,67.00,VWS V14.01,2013-02-11 21:28:00,
2013-02-11 15:29:00,33.5,26.4,29.93,West,274,17.6,20.9,75,0.00,,,0.00,67.00,VWS V14.01,2013-02-11 21:29:00,
2013-02-11 15:33:00,33.5,26.4,29.93,West,262,18.7,27.5,75,0.00,,,0.00,70.00,VWS V14.01,2013-02-11 21:33:00,
2013-02-11 15:34:00,33.4,26.0,29.93,SW,234,17.6,22.0,74,0.00,,,0.00,77.00,VWS V14.01,2013-02-11 21:34:00,
2013-02-11 15:38:00,33.4,26.3,29.94,West,260,18.7,25.3,75,0.00,,,0.00,62.00,VWS V14.01,2013-02-11 21:38:00,
2013-02-11 15:39:00,33.4,26.3,29.94,WNW,295,19.8,25.3,75,0.00,,,0.00,65.00,VWS V14.01,2013-02-11 21:39:00,
2013-02-11 15:40:00,33.4,26.3,29.94,West,275,19.8,25.3,75,0.00,,,0.00,69.00,VWS V14.01,2013-02-11 21:40:00,
2013-02-11 15:44:00,33.3,26.6,29.94,West,264,19.8,20.9,76,0.00,,,0.00,44.00,VWS V14.01,2013-02-11 21:44:00,
2013-02-11 15:45:00,33.3,26.6,29.95,West,280,14.3,19.8,76,0.00,,,0.00,42.00,VWS V14.01,2013-02-11 21:45:00,
2013-02-11 15:50:00,33.3,26.6,29.95,WSW,258,19.8,22.0,76,0.00,,,0.00,37.00,VWS V14.01,2013-02-11 21:50:00,
2013-02-11 15:51:00,33.3,26.6,29.95,WNW,297,19.8,25.3,76,0.00,,,0.00,40.00,VWS V14.01,2013-02-11 21:51:00,
2013-02-11 15:55:00,33.2,26.1,29.95,West,268,15.4,17.6,75,0.00,,,0.00,69.00,VWS V14.01,2013-02-11 21:55:00,
2013-02-11 15:56:00,33.2,26.1,29.95,West,272,20.9,27.5,75,0.00,,,0.00,65.00,VWS V14.01,2013-02-11 21:56:00,
2013-02-11 16:01:00,33.1,25.7,29.95,WNW,289,13.2,13.2,74,0.00,,,0.00,44.00,VWS V14.01,2013-02-11 22:01:00,
2013-02-11 16:02:00,33.1,25.7,29.95,West,270,14.3,14.3,74,0.00,,,0.00,39.00,VWS V14.01,2013-02-11 22:02:00,
2013-02-11 16:06:00,33.0,26.0,29.96,WNW,282,15.4,19.8,75,0.00,,,0.00,35.00,VWS V14.01,2013-02-11 22:06:00,
2013-02-11 16:07:00,33.0,26.0,29.96,West,262,19.8,19.8,75,0.00,,,0.00,33.00,VWS V14.01,2013-02-11 22:07:00,
2013-02-11 16:08:00,33.0,26.0,29.96,West,277,15.4,23.1,75,0.00,,,0.00,33.00,VWS V14.01,2013-02-11 22:08:00,
2013-02-11 16:12:00,32.9,26.2,29.96,NW,305,14.3,19.8,76,0.00,,,0.00,30.00,VWS V14.01,2013-02-11 22:12:00,
2013-02-11 16:13:00,32.9,25.9,29.96,WNW,283,11.0,25.3,75,0.00,,,0.00,39.00,VWS V14.01,2013-02-11 22:13:00,
2013-02-11 16:14:00,32.9,25.9,29.96,WSW,256,16.5,18.7,75,0.00,,,0.00,39.00,VWS V14.01,2013-02-11 22:14:00,
2013-02-11 16:17:00,32.9,26.2,29.96,West,272,19.8,19.8,76,0.00,,,0.00,33.00,VWS V14.01,2013-02-11 22:17:00,
2013-02-11 16:18:00,32.9,25.9,29.96,West,273,15.4,18.7,75,0.00,,,0.00,44.00,VWS V14.01,2013-02-11 22:18:00,
2013-02-11 16:19:00,32.8,26.1,29.96,West,278,17.6,20.9,76,0.00,,,0.00,44.00,VWS V14.01,2013-02-11 22:19:00,
2013-02-11 16:22:00,32.8,26.1,29.97,WSW,245,16.5,20.9,76,0.00,,,0.00,26.00,VWS V14.01,2013-02-11 22:22:00,
2013-02-11 16:23:00,32.8,26.1,29.97,West,260,19.8,23.1,76,0.00,,,0.00,26.00,VWS V14.01,2013-02-11 22:23:00,
2013-02-11 16:24:00,32.8,26.1,29.96,WNW,284,18.7,19.8,76,0.00,,,0.00,26.00,VWS V14.01,2013-02-11 22:24:00,
2013-02-11 16:27:00,32.8,26.1,29.97,West,271,13.2,20.9,76,0.00,,,0.00,26.00,VWS V14.01,2013-02-11 22:27:00,
2013-02-11 16:29:00,32.8,26.4,29.96,West,262,18.7,24.2,77,0.00,,,0.00,28.00,VWS V14.01,2013-02-11 22:29:00,
2013-02-11 16:30:00,32.7,26.3,29.97,WNW,297,30.8,30.8,77,0.00,,,0.00,23.00,VWS V14.01,2013-02-11 22:30:00,
2013-02-11 16:32:00,32.7,26.0,29.97,West,273,15.4,27.5,76,0.00,,,0.00,21.00,VWS V14.01,2013-02-11 22:32:00,
2013-02-11 16:33:00,32.7,26.0,29.97,West,273,29.7,29.7,76,0.00,,,0.00,26.00,VWS V14.01,2013-02-11 22:33:00,
2013-02-11 16:35:00,32.7,26.0,29.97,West,265,20.9,20.9,76,0.00,,,0.00,30.00,VWS V14.01,2013-02-11 22:35:00,
2013-02-11 16:37:00,32.7,26.0,29.97,WNW,282,16.5,17.6,76,0.00,,,0.00,23.00,VWS V14.01,2013-02-11 22:37:00,
2013-02-11 16:38:00,32.7,26.0,29.97,NW,305,19.8,19.8,76,0.00,,,0.00,23.00,VWS V14.01,2013-02-11 22:38:00,
2013-02-11 16:40:00,32.7,26.0,29.97,WSW,258,12.1,19.8,76,0.00,,,0.00,28.00,VWS V14.01,2013-02-11 22:40:00,
2013-02-11 16:41:00,32.7,26.0,29.97,WNW,287,16.5,19.8,76,0.00,,,0.00,28.00,VWS V14.01,2013-02-11 22:41:00,
2013-02-11 16:42:00,32.6,25.9,29.97,WNW,297,16.5,19.8,76,0.00,,,0.00,23.00,VWS V14.01,2013-02-11 22:42:00,
2013-02-11 16:44:00,32.6,25.6,29.97,WNW,296,20.9,22.0,75,0.00,,,0.00,23.00,VWS V14.01,2013-02-11 22:44:00,
2013-02-11 16:46:00,32.6,25.6,29.98,WSW,247,16.5,23.1,75,0.00,,,0.00,21.00,VWS V14.01,2013-02-11 22:46:00,
2013-02-11 16:47:00,32.5,25.5,29.98,WSW,238,16.5,16.5,75,0.00,,,0.00,19.00,VWS V14.01,2013-02-11 22:47:00,
2013-02-11 16:48:00,32.5,25.5,29.97,WSW,254,22.0,22.0,75,0.00,,,0.00,18.00,VWS V14.01,2013-02-11 22:48:00,
2013-02-11 16:49:00,32.5,25.5,29.98,West,266,15.4,15.4,75,0.00,,,0.00,18.00,VWS V14.01,2013-02-11 22:49:00,
2013-02-11 16:51:00,32.4,25.4,29.98,WNW,287,13.2,19.8,75,0.00,,,0.00,19.00,VWS V14.01,2013-02-11 22:51:00,
2013-02-11 16:52:00,32.5,25.8,29.98,WSW,249,11.0,24.2,76,0.00,,,0.00,18.00,VWS V14.01,2013-02-11 22:52:00,
2013-02-11 16:54:00,32.4,25.4,29.98,WSW,245,15.4,16.5,75,0.00,,,0.00,30.00,VWS V14.01,2013-02-11 22:54:00,
2013-02-11 16:55:00,32.4,25.4,29.98,West,272,24.2,29.7,75,0.00,,,0.00,26.00,VWS V14.01,2013-02-11 22:55:00,
2013-02-11 16:56:00,32.4,25.4,29.98,West,268,25.3,25.3,75,0.00,,,0.00,21.00,VWS V14.01,2013-02-11 22:56:00,
2013-02-11 16:57:00,32.4,25.4,29.98,West,277,17.6,29.7,75,0.00,,,0.00,18.00,VWS V14.01,2013-02-11 22:57:00,
2013-02-11 16:59:00,32.3,25.3,29.98,West,268,16.5,16.5,75,0.00,,,0.00,14.00,VWS V14.01,2013-02-11 22:59:00,
2013-02-11 17:00:00,32.3,25.3,29.99,WNW,286,15.4,16.5,75,0.00,,,0.00,11.00,VWS V14.01,2013-02-11 23:00:00,
2013-02-11 17:01:00,32.2,25.2,29.99,West,276,18.7,18.7,75,0.00,,,0.00,7.00,VWS V14.01,2013-02-11 23:01:00,
2013-02-11 17:02:00,32.2,25.2,29.99,WNW,296,17.6,17.6,75,0.00,,,0.00,7.00,VWS V14.01,2013-02-11 23:02:00,
2013-02-11 17:05:00,32.2,25.2,29.99,WNW,289,16.5,25.3,75,0.00,,,0.00,5.00,VWS V14.01,2013-02-11 23:05:00,
2013-02-11 17:06:00,32.2,25.2,29.99,WNW,284,16.5,17.6,75,0.00,,,0.00,5.00,VWS V14.01,2013-02-11 23:06:00,
2013-02-11 17:07:00,32.2,25.2,29.99,WNW,294,12.1,17.6,75,0.00,,,0.00,5.00,VWS V14.01,2013-02-11 23:07:00,
2013-02-11 17:10:00,32.2,25.5,29.99,WNW,293,13.2,19.8,76,0.00,,,0.00,0.00,VWS V14.01,2013-02-11 23:10:00,
2013-02-11 17:11:00,32.2,25.5,29.99,West,270,16.5,22.0,76,0.00,,,0.00,0.00,VWS V14.01,2013-02-11 23:11:00,
2013-02-11 17:13:00,32.2,25.5,29.99,WNW,297,19.8,28.6,76,0.00,,,0.00,0.00,VWS V14.01,2013-02-11 23:13:00,
2013-02-11 17:15:00,32.2,25.2,29.99,WNW,296,15.4,23.1,75,0.00,,,0.00,0.00,VWS V14.01,2013-02-11 23:15:00,
2013-02-11 17:16:00,32.2,25.2,29.99,WSW,251,23.1,23.1,75,0.00,,,0.00,0.00,VWS V14.01,2013-02-11 23:16:00,
2013-02-11 17:17:00,32.2,25.2,29.99,WNW,286,16.5,23.1,75,0.00,,,0.00,0.00,VWS V14.01,2013-02-11 23:17:00,
2013-02-11 17:18:00,32.2,25.2,29.99,West,262,29.7,31.9,75,0.00,,,0.00,0.00,VWS V14.01,2013-02-11 23:18:00,
2013-02-11 17:21:00,32.2,25.2,30.00,West,259,18.7,23.1,75,0.00,,,0.00,0.00,VWS V14.01,2013-02-11 23:21:00,
2013-02-11 17:23:00,32.2,25.5,30.00,NW,321,17.6,17.6,76,0.00,,,0.00,0.00,VWS V14.01,2013-02-11 23:23:00,
2013-02-11 17:26:00,32.1,25.1,30.00,West,262,18.7,22.0,75,0.00,,,0.00,0.00,VWS V14.01,2013-02-11 23:26:00,
2013-02-11 17:27:00,32.1,25.4,30.00,WSW,242,20.9,22.0,76,0.00,,,0.00,0.00,VWS V14.01,2013-02-11 23:27:00,
2013-02-11 17:28:00,32.1,25.4,30.00,WNW,296,13.2,17.6,76,0.00,,,0.00,0.00,VWS V14.01,2013-02-11 23:28:00,
2013-02-11 17:29:00,32.1,25.4,30.00,West,271,12.1,17.6,76,0.00,,,0.00,0.00,VWS V14.01,2013-02-11 23:29:00,
2013-02-11 17:32:00,32.1,25.4,30.00,West,261,13.2,22.0,76,0.00,,,0.00,0.00,VWS V14.01,2013-02-11 23:32:00,
2013-02-11 17:33:00,32.1,25.1,30.00,WSW,237,23.1,23.1,75,0.00,,,0.00,0.00,VWS V14.01,2013-02-11 23:33:00,
2013-02-11 17:35:00,32.1,25.4,30.00,WSW,256,20.9,20.9,76,0.00,,,0.00,0.00,VWS V14.01,2013-02-11 23:35:00,
2013-02-11 17:37:00,32.1,25.4,30.00,WNW,285,24.2,24.2,76,0.00,,,0.00,0.00,VWS V14.01,2013-02-11 23:37:00,
2013-02-11 17:39:00,32.1,25.4,30.00,West,270,28.6,28.6,76,0.00,,,0.00,0.00,VWS V14.01,2013-02-11 23:39:00,
2013-02-11 17:42:00,32.1,25.4,30.00,WSW,253,26.4,27.5,76,0.00,,,0.00,0.00,VWS V14.01,2013-02-11 23:42:00,
2013-02-11 17:43:00,32.1,25.1,30.00,West,269,20.9,24.2,75,0.00,,,0.00,0.00,VWS V14.01,2013-02-11 23:43:00,
2013-02-11 17:45:00,32.1,25.1,30.01,West,272,26.4,30.8,75,0.00,,,0.00,0.00,VWS V14.01,2013-02-11 23:45:00,
2013-02-11 17:48:00,32.1,25.1,30.01,WNW,290,18.7,25.3,75,0.00,,,0.00,0.00,VWS V14.01,2013-02-11 23:48:00,
2013-02-11 17:49:00,32.0,25.0,30.01,WNW,300,16.5,29.7,75,0.00,,,0.00,0.00,VWS V14.01,2013-02-11 23:49:00,
2013-02-11 17:50:00,32.1,25.1,30.01,WSW,248,17.6,29.7,75,0.00,,,0.00,0.00,VWS V14.01,2013-02-11 23:50:00,
2013-02-11 17:52:00,32.1,25.1,30.01,West,262,20.9,28.6,75,0.00,,,0.00,0.00,VWS V14.01,2013-02-11 23:52:00,
2013-02-11 17:53:00,32.0,25.0,30.01,West,281,27.5,34.1,75,0.00,,,0.00,0.00,VWS V14.01,2013-02-11 23:53:00,
2013-02-11 17:55:00,32.0,25.0,30.01,West,268,16.5,28.6,75,0.00,,,0.00,0.00,VWS V14.01,2013-02-11 23:55:00,
2013-02-11 17:57:00,32.0,25.0,30.01,WNW,282,19.8,25.3,75,0.00,,,0.00,0.00,VWS V14.01,2013-02-11 23:57:00,
2013-02-11 17:59:00,32.0,25.0,30.01,WNW,289,28.6,28.6,75,0.00,,,0.00,0.00,VWS V14.01,2013-02-11 23:59:00,
2013-02-11 18:00:00,32.0,25.0,30.01,SW,231,16.5,20.9,75,0.00,,,0.00,0.00,VWS V14.01,2013-02-12 00:00:00,
2013-02-11 18:01:00,32.0,25.0,30.01,WSW,258,27.5,27.5,75,0.00,,,0.00,0.00,VWS V14.01,2013-02-12 00:01:00,
2013-02-11 18:02:00,32.0,25.0,30.01,NW,314,20.9,20.9,75,0.00,,,0.00,0.00,VWS V14.01,2013-02-12 00:02:00,
2013-02-11 18:04:00,32.0,25.0,30.01,West,267,16.5,25.3,75,0.00,,,0.00,0.00,VWS V14.01,2013-02-12 00:04:00,
2013-02-11 18:06:00,32.0,25.0,30.02,West,271,16.5,18.7,75,0.00,,,0.00,0.00,VWS V14.01,2013-02-12 00:06:00,
2013-02-11 18:07:00,32.0,25.0,30.02,West,260,15.4,22.0,75,0.00,,,0.00,0.00,VWS V14.01,2013-02-12 00:07:00,
2013-02-11 18:10:00,32.0,25.3,30.02,West,279,24.2,24.2,76,0.00,,,0.00,0.00,VWS V14.01,2013-02-12 00:10:00,
2013-02-11 18:12:00,32.0,25.3,30.02,West,266,16.5,22.0,76,0.00,,,0.00,0.00,VWS V14.01,2013-02-12 00:12:00,
2013-02-11 18:13:00,32.0,25.3,30.02,West,275,9.9,22.0,76,0.00,,,0.00,0.00,VWS V14.01,2013-02-12 00:13:00,
2013-02-11 18:16:00,32.0,25.0,30.02,WNW,299,16.5,23.1,75,0.00,,,0.00,0.00,VWS V14.01,2013-02-12 00:16:00,
2013-02-11 18:17:00,32.0,25.3,30.02,West,276,17.6,17.6,76,0.00,,,0.00,0.00,VWS V14.01,2013-02-12 00:17:00,
2013-02-11 18:18:00,32.0,25.3,30.02,West,268,24.2,24.2,76,0.00,,,0.00,0.00,VWS V14.01,2013-02-12 00:18:00,
2013-02-11 18:21:00,31.9,24.9,30.03,WSW,248,11.0,26.4,75,0.00,,,0.00,0.00,VWS V14.01,2013-02-12 00:21:00,
2013-02-11 18:23:00,31.9,25.2,30.03,WSW,253,11.0,22.0,76,0.00,,,0.00,0.00,VWS V14.01,2013-02-12 00:23:00,
2013-02-11 18:25:00,31.9,25.2,30.02,WSW,258,14.3,17.6,76,0.00,,,0.00,0.00,VWS V14.01,2013-02-12 00:25:00,
2013-02-11 18:26:00,31.9,25.2,30.02,West,279,18.7,18.7,76,0.00,,,0.00,0.00,VWS V14.01,2013-02-12 00:26:00,
2013-02-11 18:28:00,31.8,25.1,30.02,WSW,241,13.2,22.0,76,0.00,,,0.00,0.00,VWS V14.01,2013-02-12 00:28:00,
2013-02-11 18:29:00,31.8,25.1,30.02,West,280,14.3,26.4,76,0.00,,,0.00,0.00,VWS V14.01,2013-02-12 00:29:00,
2013-02-11 18:30:00,31.8,25.1,30.02,NW,310,16.5,22.0,76,0.00,,,0.00,0.00,VWS V14.01,2013-02-12 00:30:00,
2013-02-11 18:31:00,31.8,25.1,30.03,West,276,11.0,18.7,76,0.00,,,0.00,0.00,VWS V14.01,2013-02-12 00:31:00,
2013-02-11 18:33:00,31.8,25.1,30.02,West,264,17.6,17.6,76,0.00,,,0.00,0.00,VWS V14.01,2013-02-12 00:33:00,
2013-02-11 18:35:00,31.8,25.1,30.02,West,269,12.1,15.4,76,0.00,,,0.00,0.00,VWS V14.01,2013-02-12 00:35:00,
2013-02-11 18:36:00,31.8,25.1,30.02,WNW,295,17.6,20.9,76,0.00,,,0.00,0.00,VWS V14.01,2013-02-12 00:36:00,
2013-02-11 18:37:00,31.8,25.1,30.02,WNW,300,18.7,24.2,76,0.00,,,0.00,0.00,VWS V14.01,2013-02-12 00:37:00,
2013-02-11 18:39:00,31.7,25.0,30.03,West,278,15.4,20.9,76,0.00,,,0.00,0.00,VWS V14.01,2013-02-12 00:39:00,
2013-02-11 18:40:00,31.8,25.1,30.03,West,268,13.2,13.2,76,0.00,,,0.00,0.00,VWS V14.01,2013-02-12 00:40:00,
2013-02-11 18:41:00,31.7,25.0,30.03,West,265,4.4,13.2,76,0.00,,,0.00,0.00,VWS V14.01,2013-02-12 00:41:00,
2013-02-11 18:43:00,31.8,25.4,30.03,WNW,290,6.6,14.3,77,0.00,,,0.00,0.00,VWS V14.01,2013-02-12 00:43:00,
2013-02-11 18:44:00,31.7,25.3,30.03,WNW,295,11.0,16.5,77,0.00,,,0.00,0.00,VWS V14.01,2013-02-12 00:44:00,
2013-02-11 18:45:00,31.7,25.3,30.03,West,262,20.9,20.9,77,0.00,,,0.00,0.00,VWS V14.01,2013-02-12 00:45:00,
2013-02-11 18:46:00,31.7,25.3,30.03,West,270,12.1,17.6,77,0.00,,,0.00,0.00,VWS V14.01,2013-02-12 00:46:00,
2013-02-11 18:48:00,31.7,25.3,30.03,WNW,289,11.0,17.6,77,0.00,,,0.00,0.00,VWS V14.01,2013-02-12 00:48:00,
2013-02-11 18:49:00,31.7,25.3,30.03,West,276,14.3,16.5,77,0.00,,,0.00,0.00,VWS V14.01,2013-02-12 00:49:00,
2013-02-11 18:51:00,31.7,25.3,30.03,West,281,17.6,20.9,77,0.00,,,0.00,0.00,VWS V14.01,2013-02-12 00:51:00,
2013-02-11 18:52:00,31.7,25.3,30.03,West,280,20.9,20.9,77,0.00,,,0.00,0.00,VWS V14.01,2013-02-12 00:52:00,
2013-02-11 18:53:00,31.7,25.3,30.03,West,266,16.5,16.5,77,0.00,,,0.00,0.00,VWS V14.01,2013-02-12 00:53:00,
2013-02-11 18:54:00,31.7,25.3,30.03,West,274,14.3,18.7,77,0.00,,,0.00,0.00,VWS V14.01,2013-02-12 00:54:00,
2013-02-11 18:56:00,31.7,25.3,30.03,West,260,19.8,22.0,77,0.00,,,0.00,0.00,VWS V14.01,2013-02-12 00:56:00,
2013-02-11 18:57:00,31.7,25.3,30.03,West,269,24.2,26.4,77,0.00,,,0.00,0.00,VWS V14.01,2013-02-12 00:57:00,
2013-02-11 18:58:00,31.7,25.3,30.03,WNW,296,13.2,16.5,77,0.00,,,0.00,0.00,VWS V14.01,2013-02-12 00:58:00,
2013-02-11 19:01:00,31.7,25.3,30.03,West,278,18.7,19.8,77,0.00,,,0.00,0.00,VWS V14.01,2013-02-12 01:01:00,
2013-02-11 19:02:00,31.7,25.3,30.03,WNW,299,11.0,22.0,77,0.00,,,0.00,0.00,VWS V14.01,2013-02-12 01:02:00,
2013-02-11 19:03:00,31.7,25.3,30.03,West,279,22.0,22.0,77,0.00,,,0.00,0.00,VWS V14.01,2013-02-12 01:03:00,
2013-02-11 19:04:00,31.7,25.3,30.03,WNW,294,18.7,22.0,77,0.00,,,0.00,0.00,VWS V14.01,2013-02-12 01:04:00,
2013-02-11 19:06:00,31.7,25.3,30.03,NW,306,17.6,17.6,77,0.00,,,0.00,0.00,VWS V14.01,2013-02-12 01:06:00,
2013-02-11 19:07:00,31.7,25.3,30.03,West,269,24.2,24.2,77,0.00,,,0.00,0.00,VWS V14.01,2013-02-12 01:07:00,
2013-02-11 19:08:00,31.7,25.3,30.03,West,274,15.4,24.2,77,0.00,,,0.00,0.00,VWS V14.01,2013-02-12 01:08:00,
2013-02-11 19:09:00,31.7,25.3,30.03,West,264,14.3,20.9,77,0.00,,,0.00,0.00,VWS V14.01,2013-02-12 01:09:00,
2013-02-11 19:11:00,31.7,25.3,30.03,WSW,258,12.1,15.4,77,0.00,,,0.00,0.00,VWS V14.01,2013-02-12 01:11:00,
2013-02-11 19:12:00,31.7,25.3,30.04,WNW,287,13.2,18.7,77,0.00,,,0.00,0.00,VWS V14.01,2013-02-12 01:12:00,
2013-02-11 19:13:00,31.7,25.3,30.03,WNW,282,13.2,15.4,77,0.00,,,0.00,0.00,VWS V14.01,2013-02-12 01:13:00,
2013-02-11 19:14:00,31.7,25.3,30.03,West,278,16.5,20.9,77,0.00,,,0.00,0.00,VWS V14.01,2013-02-12 01:14:00,
2013-02-11 19:17:00,31.7,25.3,30.03,West,280,17.6,23.1,77,0.00,,,0.00,0.00,VWS V14.01,2013-02-12 01:17:00,
2013-02-11 19:18:00,31.7,25.3,30.04,West,270,16.5,23.1,77,0.00,,,0.00,0.00,VWS V14.01,2013-02-12 01:18:00,
2013-02-11 19:19:00,31.7,25.3,30.03,West,268,14.3,22.0,77,0.00,,,0.00,0.00,VWS V14.01,2013-02-12 01:19:00,
2013-02-11 19:22:00,31.7,25.3,30.04,WNW,288,18.7,20.9,77,0.00,,,0.00,0.00,VWS V14.01,2013-02-12 01:22:00,
2013-02-11 19:23:00,31.7,25.3,30.04,WNW,291,14.3,14.3,77,0.00,,,0.00,0.00,VWS V14.01,2013-02-12 01:23:00,
2013-02-11 19:24:00,31.7,25.3,30.03,West,264,13.2,14.3,77,0.00,,,0.00,0.00,VWS V14.01,2013-02-12 01:24:00,
2013-02-11 19:25:00,31.7,25.3,30.03,West,276,15.4,17.6,77,0.00,,,0.00,0.00,VWS V14.01,2013-02-12 01:25:00,
2013-02-11 19:27:00,31.7,25.3,30.04,West,278,12.1,15.4,77,0.00,,,0.00,0.00,VWS V14.01,2013-02-12 01:27:00,
2013-02-11 19:28:00,31.6,25.2,30.04,West,274,17.6,23.1,77,0.00,,,0.00,0.00,VWS V14.01,2013-02-12 01:28:00,
2013-02-11 19:30:00,31.6,25.2,30.04,West,263,19.8,27.5,77,0.00,,,0.00,0.00,VWS V14.01,2013-02-12 01:30:00,
2013-02-11 19:33:00,31.6,25.2,30.04,West,265,16.5,16.5,77,0.00,,,0.00,0.00,VWS V14.01,2013-02-12 01:33:00,
2013-02-11 19:35:00,31.6,25.5,30.04,WNW,295,15.4,15.4,78,0.00,,,0.00,0.00,VWS V14.01,2013-02-12 01:35:00,
2013-02-11 19:39:00,31.6,25.5,30.04,West,278,16.5,20.9,78,0.00,,,0.00,0.00,VWS V14.01,2013-02-12 01:39:00,
2013-02-11 19:40:00,31.5,25.4,30.04,WNW,292,15.4,19.8,78,0.00,,,0.00,0.00,VWS V14.01,2013-02-12 01:40:00,
2013-02-11 19:41:00,31.5,25.1,30.04,West,269,22.0,23.1,77,0.00,,,0.00,0.00,VWS V14.01,2013-02-12 01:41:00,
2013-02-11 19:44:00,31.5,25.4,30.04,WNW,292,19.8,27.5,78,0.00,,,0.00,0.00,VWS V14.01,2013-02-12 01:44:00,
2013-02-11 19:45:00,31.5,25.1,30.04,West,279,12.1,17.6,77,0.00,,,0.00,0.00,VWS V14.01,2013-02-12 01:45:00,
2013-02-11 19:46:00,31.5,25.1,30.04,WSW,258,17.6,17.6,77,0.00,,,0.00,0.00,VWS V14.01,2013-02-12 01:46:00,
2013-02-11 19:50:00,31.5,25.1,30.04,NNW,332,11.0,11.0,77,0.00,,,0.00,0.00,VWS V14.01,2013-02-12 01:50:00,
2013-02-11 19:51:00,31.5,25.1,30.04,WNW,301,17.6,18.7,77,0.00,,,0.00,0.00,VWS V14.01,2013-02-12 01:51:00,
2013-02-11 19:55:00,31.5,25.1,30.04,West,260,18.7,18.7,77,0.00,,,0.00,0.00,VWS V14.01,2013-02-12 01:55:00,
2013-02-11 19:56:00,31.5,25.1,30.04,NW,306,5.5,18.7,77,0.00,,,0.00,0.00,VWS V14.01,2013-02-12 01:56:00,
2013-02-11 19:57:00,31.5,25.1,30.04,West,279,11.0,20.9,77,0.00,,,0.00,0.00,VWS V14.01,2013-02-12 01:57:00,
2013-02-11 20:01:00,31.5,25.1,30.04,NW,321,13.2,14.3,77,0.00,,,0.00,0.00,VWS V14.01,2013-02-12 02:01:00,
2013-02-11 20:02:00,31.4,25.0,30.04,WNW,293,15.4,26.4,77,0.00,,,0.00,0.00,VWS V14.01,2013-02-12 02:02:00,
2013-02-11 20:06:00,31.5,25.1,30.04,West,279,11.0,17.6,77,0.00,,,0.00,0.00,VWS V14.01,2013-02-12 02:06:00,
2013-02-11 20:07:00,31.5,25.1,30.04,WNW,298,9.9,17.6,77,0.00,,,0.00,0.00,VWS V14.01,2013-02-12 02:07:00,
2013-02-11 20:08:00,31.5,25.4,30.04,WNW,295,8.8,17.6,78,0.00,,,0.00,0.00,VWS V14.01,2013-02-12 02:08:00,
2013-02-11 20:12:00,31.4,25.4,30.04,WNW,297,7.7,13.2,78,0.00,,,0.00,0.00,VWS V14.01,2013-02-12 02:12:00,
2013-02-11 20:13:00,31.5,25.1,30.04,WNW,282,9.9,12.1,77,0.00,,,0.00,0.00,VWS V14.01,2013-02-12 02:13:00,
2013-02-11 20:14:00,31.4,25.4,30.04,West,260,7.7,15.4,78,0.00,,,0.00,0.00,VWS V14.01,2013-02-12 02:14:00,
2013-02-11 20:17:00,31.4,25.4,30.04,West,274,13.2,19.8,78,0.00,,,0.00,0.00,VWS V14.01,2013-02-12 02:17:00,
2013-02-11 20:18:00,31.4,25.4,30.04,West,280,8.8,11.0,78,0.00,,,0.00,0.00,VWS V14.01,2013-02-12 02:18:00,
2013-02-11 20:19:00,31.4,25.4,30.04,West,261,14.3,16.5,78,0.00,,,0.00,0.00,VWS V14.01,2013-02-12 02:19:00,
2013-02-11 20:22:00,31.4,25.4,30.04,West,263,9.9,17.6,78,0.00,,,0.00,0.00,VWS V14.01,2013-02-12 02:22:00,
2013-02-11 20:23:00,31.4,25.4,30.05,WNW,286,11.0,15.4,78,0.00,,,0.00,0.00,VWS V14.01,2013-02-12 02:23:00,
2013-02-11 20:24:00,31.4,25.4,30.05,West,280,12.1,12.1,78,0.00,,,0.00,0.00,VWS V14.01,2013-02-12 02:24:00,
2013-02-11 20:25:00,31.4,25.4,30.05,West,280,9.9,12.1,78,0.00,,,0.00,0.00,VWS V14.01,2013-02-12 02:25:00,
2013-02-11 20:27:00,31.4,25.6,30.05,West,262,9.9,14.3,79,0.00,,,0.00,0.00,VWS V14.01,2013-02-12 02:27:00,
2013-02-11 20:29:00,31.4,25.6,30.05,West,267,16.5,16.5,79,0.00,,,0.00,0.00,VWS V14.01,2013-02-12 02:29:00,
2013-02-11 20:30:00,31.4,25.6,30.05,WNW,283,8.8,16.5,79,0.00,,,0.00,0.00,VWS V14.01,2013-02-12 02:30:00,
2013-02-11 20:32:00,31.4,25.6,30.05,NW,313,6.6,8.8,79,0.00,,,0.00,0.00,VWS V14.01,2013-02-12 02:32:00,
2013-02-11 20:35:00,31.4,25.6,30.05,WNW,291,8.8,9.9,79,0.00,,,0.00,0.00,VWS V14.01,2013-02-12 02:35:00,
2013-02-11 20:36:00,31.4,25.6,30.05,NW,314,16.5,16.5,79,0.00,,,0.00,0.00,VWS V14.01,2013-02-12 02:36:00,
2013-02-11 20:37:00,31.4,25.6,30.05,West,269,11.0,13.2,79,0.00,,,0.00,0.00,VWS V14.01,2013-02-12 02:37:00,
2013-02-11 20:41:00,31.3,25.2,30.05,WNW,283,20.9,24.2,78,0.00,,,0.00,0.00,VWS V14.01,2013-02-12 02:41:00,
2013-02-11 20:42:00,31.3,24.9,30.05,WNW,303,15.4,15.4,77,0.00,,,0.00,0.00,VWS V14.01,2013-02-12 02:42:00,
2013-02-11 20:43:00,31.2,24.5,30.05,WNW,291,12.1,22.0,76,0.00,,,0.00,0.00,VWS V14.01,2013-02-12 02:43:00,
2013-02-11 20:46:00,31.2,24.5,30.05,WNW,299,14.3,18.7,76,0.00,,,0.00,0.00,VWS V14.01,2013-02-12 02:46:00,
2013-02-11 20:47:00,31.2,24.5,30.05,West,266,16.5,22.0,76,0.00,,,0.00,0.00,VWS V14.01,2013-02-12 02:47:00,
2013-02-11 20:48:00,31.2,24.5,30.05,WNW,287,12.1,22.0,76,0.00,,,0.00,0.00,VWS V14.01,2013-02-12 02:48:00,
2013-02-11 20:52:00,31.1,24.8,30.05,WNW,289,17.6,18.7,77,0.00,,,0.00,0.00,VWS V14.01,2013-02-12 02:52:00,
2013-02-11 20:53:00,31.1,24.4,30.05,West,267,6.6,18.7,76,0.00,,,0.00,0.00,VWS V14.01,2013-02-12 02:53:00,
2013-02-11 20:57:00,31.0,24.6,30.05,NW,305,16.5,27.5,77,0.00,,,0.00,0.00,VWS V14.01,2013-02-12 02:57:00,
2013-02-11 20:58:00,31.0,24.6,30.05,WNW,295,11.0,15.4,77,0.00,,,0.00,0.00,VWS V14.01,2013-02-12 02:58:00,
2013-02-11 20:59:00,31.1,24.8,30.05,NW,317,12.1,15.4,77,0.00,,,0.00,0.00,VWS V14.01,2013-02-12 02:59:00,
2013-02-11 21:04:00,31.1,24.8,30.05,WNW,282,13.2,13.2,77,0.00,,,0.00,0.00,VWS V14.01,2013-02-12 03:04:00,
2013-02-11 21:09:00,31.0,24.6,30.05,WNW,294,14.3,16.5,77,0.00,,,0.00,0.00,VWS V14.01,2013-02-12 03:09:00,
2013-02-11 21:10:00,31.0,24.6,30.05,NW,307,12.1,13.2,77,0.00,,,0.00,0.00,VWS V14.01,2013-02-12 03:10:00,
2013-02-11 21:14:00,31.0,24.6,30.06,WNW,299,22.0,24.2,77,0.00,,,0.00,0.00,VWS V14.01,2013-02-12 03:14:00,
2013-02-11 21:15:00,31.0,24.6,30.06,West,278,12.1,24.2,77,0.00,,,0.00,0.00,VWS V14.01,2013-02-12 03:15:00,
2013-02-11 21:16:00,31.0,24.6,30.06,NW,312,14.3,19.8,77,0.00,,,0.00,0.00,VWS V14.01,2013-02-12 03:16:00,
2013-02-11 21:19:00,31.0,24.6,30.06,WNW,301,11.0,23.1,77,0.00,,,0.00,0.00,VWS V14.01,2013-02-12 03:19:00,
2013-02-11 21:20:00,31.0,24.6,30.06,WNW,298,15.4,18.7,77,0.00,,,0.00,0.00,VWS V14.01,2013-02-12 03:20:00,
2013-02-11 21:21:00,31.0,24.6,30.06,WNW,302,17.6,17.6,77,0.00,,,0.00,0.00,VWS V14.01,2013-02-12 03:21:00,
2013-02-11 21:25:00,31.0,24.6,30.06,WNW,283,27.5,27.5,77,0.00,,,0.00,0.00,VWS V14.01,2013-02-12 03:25:00,
2013-02-11 21:27:00,31.0,24.3,30.06,NW,315,13.2,17.6,76,0.00,,,0.00,0.00,VWS V14.01,2013-02-12 03:27:00,
2013-02-11 21:30:00,31.0,24.6,30.06,West,259,13.2,14.3,77,0.00,,,0.00,0.00,VWS V14.01,2013-02-12 03:30:00,
2013-02-11 21:31:00,31.0,24.6,30.06,WNW,295,18.7,18.7,77,0.00,,,0.00,0.00,VWS V14.01,2013-02-12 03:31:00,
2013-02-11 21:32:00,31.0,24.6,30.06,WNW,288,14.3,18.7,77,0.00,,,0.00,0.00,VWS V14.01,2013-02-12 03:32:00,
2013-02-11 21:33:00,31.0,25.0,30.06,NW,308,11.0,15.4,78,0.00,,,0.00,0.00,VWS V14.01,2013-02-12 03:33:00,
2013-02-11 21:35:00,31.0,25.0,30.06,WNW,283,19.8,19.8,78,0.00,,,0.00,0.00,VWS V14.01,2013-02-12 03:35:00,
2013-02-11 21:36:00,30.9,24.9,30.06,WNW,284,6.6,12.1,78,0.00,,,0.00,0.00,VWS V14.01,2013-02-12 03:36:00,
2013-02-11 21:38:00,30.9,24.9,30.06,West,281,9.9,16.5,78,0.00,,,0.00,0.00,VWS V14.01,2013-02-12 03:38:00,
2013-02-11 21:39:00,30.9,24.9,30.06,WNW,302,16.5,16.5,78,0.00,,,0.00,0.00,VWS V14.01,2013-02-12 03:39:00,
2013-02-11 21:40:00,30.9,24.9,30.06,West,260,11.0,16.5,78,0.00,,,0.00,0.00,VWS V14.01,2013-02-12 03:40:00,
2013-02-11 21:42:00,30.9,24.9,30.06,WNW,286,7.7,15.4,78,0.00,,,0.00,0.00,VWS V14.01,2013-02-12 03:42:00,
2013-02-11 21:44:00,30.9,24.9,30.06,WNW,291,17.6,17.6,78,0.00,,,0.00,0.00,VWS V14.01,2013-02-12 03:44:00,
2013-02-11 21:45:00,31.0,25.0,30.06,WNW,283,12.1,18.7,78,0.00,,,0.00,0.00,VWS V14.01,2013-02-12 03:45:00,
2013-02-11 21:47:00,30.9,24.9,30.06,West,274,11.0,17.6,78,0.00,,,0.00,0.00,VWS V14.01,2013-02-12 03:47:00,
2013-02-11 21:50:00,30.9,25.2,30.06,West,265,11.0,14.3,79,0.00,,,0.00,0.00,VWS V14.01,2013-02-12 03:50:00,
2013-02-11 21:52:00,30.9,24.9,30.06,NW,309,17.6,17.6,78,0.00,,,0.00,0.00,VWS V14.01,2013-02-12 03:52:00,
2013-02-11 21:55:00,30.9,24.9,30.06,WNW,291,17.6,17.6,78,0.00,,,0.00,0.00,VWS V14.01,2013-02-12 03:55:00,
2013-02-11 21:56:00,30.9,25.2,30.06,WNW,284,7.7,13.2,79,0.00,,,0.00,0.00,VWS V14.01,2013-02-12 03:56:00,
2013-02-11 21:57:00,30.9,25.2,30.06,WNW,283,7.7,9.9,79,0.00,,,0.00,0.00,VWS V14.01,2013-02-12 03:57:00,
2013-02-11 22:00:00,30.9,25.2,30.06,NW,308,5.5,7.7,79,0.00,,,0.00,0.00,VWS V14.01,2013-02-12 04:00:00,
2013-02-11 22:01:00,30.9,25.2,30.06,WSW,254,12.1,14.3,79,0.00,,,0.00,0.00,VWS V14.01,2013-02-12 04:01:00,
2013-02-11 22:03:00,30.9,25.2,30.07,WNW,294,8.8,8.8,79,0.00,,,0.00,0.00,VWS V14.01,2013-02-12 04:03:00,
2013-02-11 22:05:00,30.9,25.5,30.07,West,276,11.0,11.0,80,0.00,,,0.00,0.00,VWS V14.01,2013-02-12 04:05:00,
2013-02-11 22:06:00,30.9,25.5,30.07,WNW,298,14.3,14.3,80,0.00,,,0.00,0.00,VWS V14.01,2013-02-12 04:06:00,
2013-02-11 22:07:00,30.9,25.5,30.07,West,278,11.0,14.3,80,0.00,,,0.00,0.00,VWS V14.01,2013-02-12 04:07:00,
2013-02-11 22:08:00,30.9,25.5,30.07,West,278,7.7,8.8,80,0.00,,,0.00,0.00,VWS V14.01,2013-02-12 04:08:00,
2013-02-11 22:11:00,30.9,25.5,30.07,West,274,11.0,11.0,80,0.00,,,0.00,0.00,VWS V14.01,2013-02-12 04:11:00,
2013-02-11 22:12:00,30.9,25.5,30.07,WSW,258,11.0,16.5,80,0.00,,,0.00,0.00,VWS V14.01,2013-02-12 04:12:00,
2013-02-11 22:14:00,30.9,25.5,30.07,West,274,9.9,16.5,80,0.00,,,0.00,0.00,VWS V14.01,2013-02-12 04:14:00,
2013-02-11 22:17:00,31.0,25.3,30.07,WNW,287,13.2,14.3,79,0.00,,,0.00,0.00,VWS V14.01,2013-02-12 04:17:00,
2013-02-11 22:19:00,31.0,25.3,30.07,WNW,291,12.1,14.3,79,0.00,,,0.00,0.00,VWS V14.01,2013-02-12 04:19:00,
2013-02-11 22:22:00,31.0,25.3,30.07,West,260,15.4,15.4,79,0.00,,,0.00,0.00,VWS V14.01,2013-02-12 04:22:00,
2013-02-11 22:23:00,31.0,25.3,30.07,West,277,16.5,19.8,79,0.00,,,0.00,0.00,VWS V14.01,2013-02-12 04:23:00,
2013-02-11 22:25:00,31.0,25.3,30.07,WSW,252,12.1,18.7,79,0.00,,,0.00,0.00,VWS V14.01,2013-02-12 04:25:00,
2013-02-11 22:27:00,31.0,25.0,30.07,West,281,13.2,23.1,78,0.00,,,0.00,0.00,VWS V14.01,2013-02-12 04:27:00,
2013-02-11 22:28:00,31.0,25.0,30.07,West,274,15.4,23.1,78,0.00,,,0.00,0.00,VWS V14.01,2013-02-12 04:28:00,
2013-02-11 22:29:00,31.0,25.0,30.07,WNW,289,18.7,18.7,78,0.00,,,0.00,0.00,VWS V14.01,2013-02-12 04:29:00,
2013-02-11 22:31:00,31.0,25.0,30.07,West,276,12.1,18.7,78,0.00,,,0.00,0.00,VWS V14.01,2013-02-12 04:31:00,
2013-02-11 22:33:00,31.0,25.0,30.07,West,269,18.7,19.8,78,0.00,,,0.00,0.00,VWS V14.01,2013-02-12 04:33:00,
2013-02-11 22:34:00,31.0,25.0,30.07,WNW,292,12.1,18.7,78,0.00,,,0.00,0.00,VWS V14.01,2013-02-12 04:34:00,
2013-02-11 22:36:00,30.9,24.9,30.07,WNW,292,11.0,15.4,78,0.00,,,0.00,0.00,VWS V14.01,2013-02-12 04:36:00,
2013-02-11 22:38:00,30.9,24.9,30.07,WNW,295,19.8,19.8,78,0.00,,,0.00,0.00,VWS V14.01,2013-02-12 04:38:00,
2013-02-11 22:39:00,30.9,24.9,30.08,West,280,15.4,20.9,78,0.00,,,0.00,0.00,VWS V14.01,2013-02-12 04:39:00,
2013-02-11 22:42:00,30.9,24.9,30.07,West,280,17.6,18.7,78,0.00,,,0.00,0.00,VWS V14.01,2013-02-12 04:42:00,
2013-02-11 22:43:00,30.9,24.9,30.08,West,281,17.6,22.0,78,0.00,,,0.00,0.00,VWS V14.01,2013-02-12 04:43:00,
2013-02-11 22:45:00,30.9,24.9,30.08,West,274,13.2,15.4,78,0.00,,,0.00,0.00,VWS V14.01,2013-02-12 04:45:00,
2013-02-11 22:47:00,30.9,24.9,30.08,WSW,253,14.3,18.7,78,0.00,,,0.00,0.00,VWS V14.01,2013-02-12 04:47:00,
2013-02-11 22:48:00,30.8,24.8,30.08,WNW,290,17.6,17.6,78,0.00,,,0.00,0.00,VWS V14.01,2013-02-12 04:48:00,
2013-02-11 22:50:00,30.9,24.9,30.08,West,278,13.2,19.8,78,0.00,,,0.00,0.00,VWS V14.01,2013-02-12 04:50:00,
2013-02-11 22:51:00,30.8,24.8,30.08,West,274,18.7,25.3,78,0.00,,,0.00,0.00,VWS V14.01,2013-02-12 04:51:00,
2013-02-11 22:54:00,30.8,24.8,30.07,West,262,14.3,19.8,78,0.00,,,0.00,0.00,VWS V14.01,2013-02-12 04:54:00,
2013-02-11 22:55:00,30.8,24.8,30.07,WNW,283,13.2,19.8,78,0.00,,,0.00,0.00,VWS V14.01,2013-02-12 04:55:00,
2013-02-11 22:56:00,30.8,24.8,30.08,West,273,17.6,19.8,78,0.00,,,0.00,0.00,VWS V14.01,2013-02-12 04:56:00,
2013-02-11 22:59:00,30.8,24.8,30.08,West,270,18.7,20.9,78,0.00,,,0.00,0.00,VWS V14.01,2013-02-12 04:59:00,
2013-02-11 23:00:00,30.8,24.8,30.08,WNW,303,11.0,20.9,78,0.00,,,0.00,0.00,VWS V14.01,2013-02-12 05:00:00,
2013-02-11 23:02:00,30.8,24.8,30.08,WNW,301,12.1,18.7,78,0.00,,,0.00,0.00,VWS V14.01,2013-02-12 05:02:00,
2013-02-11 23:05:00,30.7,25.0,30.08,WNW,296,17.6,20.9,79,0.00,,,0.00,0.00,VWS V14.01,2013-02-12 05:05:00,
2013-02-11 23:06:00,30.8,24.8,30.08,West,278,9.9,23.1,78,0.00,,,0.00,0.00,VWS V14.01,2013-02-12 05:06:00,
2013-02-11 23:07:00,30.7,25.0,30.08,West,276,16.5,16.5,79,0.00,,,0.00,0.00,VWS V14.01,2013-02-12 05:07:00,
2013-02-11 23:11:00,30.7,25.0,30.08,West,274,12.1,14.3,79,0.00,,,0.00,0.00,VWS V14.01,2013-02-12 05:11:00,
2013-02-11 23:13:00,30.8,24.8,30.08,West,277,15.4,17.6,78,0.00,,,0.00,0.00,VWS V14.01,2013-02-12 05:13:00,
2013-02-11 23:16:00,30.7,25.0,30.08,West,270,14.3,14.3,79,0.00,,,0.00,0.00,VWS V14.01,2013-02-12 05:16:00,
2013-02-11 23:18:00,30.7,25.0,30.08,WNW,295,13.2,14.3,79,0.00,,,0.00,0.00,VWS V14.01,2013-02-12 05:18:00,
2013-02-11 23:21:00,30.7,25.0,30.08,NW,306,11.0,19.8,79,0.00,,,0.00,0.00,VWS V14.01,2013-02-12 05:21:00,
2013-02-11 23:22:00,30.7,25.0,30.08,West,277,8.8,14.3,79,0.00,,,0.00,0.00,VWS V14.01,2013-02-12 05:22:00,
2013-02-11 23:24:00,30.7,25.0,30.08,WNW,288,9.9,19.8,79,0.00,,,0.00,0.00,VWS V14.01,2013-02-12 05:24:00,
2013-02-11 23:27:00,30.7,25.0,30.08,West,274,18.7,18.7,79,0.00,,,0.00,0.00,VWS V14.01,2013-02-12 05:27:00,
2013-02-11 23:28:00,30.7,25.0,30.08,WNW,289,16.5,23.1,79,0.00,,,0.00,0.00,VWS V14.01,2013-02-12 05:28:00,
2013-02-11 23:30:00,30.7,25.0,30.08,NW,306,18.7,18.7,79,0.00,,,0.00,0.00,VWS V14.01,2013-02-12 05:30:00,
2013-02-11 23:32:00,30.7,25.0,30.08,WNW,293,9.9,9.9,79,0.00,,,0.00,0.00,VWS V14.01,2013-02-12 05:32:00,
2013-02-11 23:33:00,30.7,25.0,30.08,WNW,292,11.0,14.3,79,0.00,,,0.00,0.00,VWS V14.01,2013-02-12 05:33:00,
2013-02-11 23:36:00,30.6,24.9,30.08,WNW,299,15.4,18.7,79,0.00,,,0.00,0.00,VWS V14.01,2013-02-12 05:36:00,
2013-02-11 23:38:00,30.6,24.9,30.09,WNW,282,13.2,16.5,79,0.00,,,0.00,0.00,VWS V14.01,2013-02-12 05:38:00,
2013-02-11 23:39:00,30.6,24.9,30.09,West,278,8.8,18.7,79,0.00,,,0.00,0.00,VWS V14.01,2013-02-12 05:39:00,
2013-02-11 23:41:00,30.6,24.9,30.09,WNW,293,11.0,17.6,79,0.00,,,0.00,0.00,VWS V14.01,2013-02-12 05:41:00,
2013-02-11 23:44:00,30.6,25.2,30.09,NW,315,8.8,11.0,80,0.00,,,0.00,0.00,VWS V14.01,2013-02-12 05:44:00,
2013-02-11 23:47:00,30.6,25.2,30.09,NW,306,8.8,12.1,80,0.00,,,0.00,0.00,VWS V14.01,2013-02-12 05:47:00,
2013-02-11 23:49:00,30.6,25.2,30.09,WSW,252,13.2,14.3,80,0.00,,,0.00,0.00,VWS V14.01,2013-02-12 05:49:00,
2013-02-11 23:50:00,30.6,25.2,30.09,West,276,16.5,19.8,80,0.00,,,0.00,0.00,VWS V14.01,2013-02-12 05:50:00,
2013-02-11 23:53:00,30.5,25.1,30.09,WNW,285,14.3,14.3,80,0.00,,,0.00,0.00,VWS V14.01,2013-02-12 05:53:00,
2013-02-11 23:54:00,30.5,25.1,30.10,West,274,13.2,13.2,80,0.00,,,0.00,0.00,VWS V14.01,2013-02-12 05:54:00,
2013-02-11 23:55:00,30.4,25.0,30.10,West,274,8.8,14.3,80,0.00,,,0.00,0.00,VWS V14.01,2013-02-12 05:55:00,
2013-02-11 23:59:00,30.2,24.5,30.10,West,272,8.8,8.8,79,0.00,,,0.00,0.00,VWS V14.01,2013-02-12 05:59:00,